                ,  0.195,  0.292,  0.389,  0.486,  0.583,  0.680,  0.777,  0.874,  0.971,  1.068,  1.165,  1.262,  1.359,  1.456,  1.553,  1.651,  1.748,  1.845,  1.942,  2.039,  2.136,  2.233,  2.330,  2.427,  2.524,  2.621,  2.718,  2.815,  2.912,  3.009,  3.106,  3.203,  3.300,  3.397,  3.494,  3.591,  3.688,  3.785,  3.882,  3.979,  4.076,  4.173,  4.270,  4.367,  4.464,  4.561,  4.658,  4.755,  4.852,  4.950,  5.047,  5.144,  5.241,  5.338,  5.435,  5.532,  5.629,  5.726,  5.823,  5.920,  6.017,  6.114,  6.211,  6.308,  6.405,  6.502,  6.599,  6.696,  6.793,  6.890,  6.987,  7.084,  7.181,  7.278,  7.375,  7.472,  7.569,  7.666,  7.763,  7.860,  7.957,  8.054,  8.151,  8.249,  8.346,  8.443,  8.540,  8.637,  8.734,  8.831,  8.928,  9.025,  9.122,  9.219,  9.316,  9.413,  9.510,  9.607
2011/09/07 00:00,  999.0,  999.0,  999.0,  999.0,   -5.9,   -6.8,  999.0,  999.0,  999.0,  999.0,  999.0,  999.0,   -3.7,  999.0,  999.0,  999.0,  999.0,   -2.3,   -1.5,  999.0,  999.0,  999.0,  999.0,  999.0,  999.0,   -9.4,   -8.8,   -9.8,  999.0,   -9.6,  -10.0,  -12.0,  -12.2,  -11.9,  -11.3,  -10.8,  -12.1,  999.0,  -12.4,  -10.5,   -7.1,  999.0,  999.0,    1.6,    1.1,   -0.5,   -1.1,   -2.0,   -2.7,   -3.3,   -4.2,   -4.9,   -4.9,   -4.0,   -2.9,   -2.8,   -2.6,   -2.1,   -1.9,   -1.9,   -1.9,   -2.6,   -3.4,   -3.6,   -4.0,   -4.3,   -4.9,   -6.3,   -8.8,  -10.6,  -11.7,  -12.0,  -11.3,  -10.3,   -9.8,   -8.9,   -7.4,  999.0,  999.0,   -5.3,   -5.8,   -7.6,   -8.4,   -9.6,  -10.5,  -10.7,  -11.5,  -11.2,  -11.2,  -11.3,  -10.7,   -9.8,   -8.5,   -7.6,   -7.1,   -7.1,   -7.3,   -7.6
2011/09/07 00:10,   -3.7,  -10.3,   -7.3,   -6.2,   -5.7,   -7.7,  999.0,  999.0,  999.0,   -5.8,   -5.5,   -5.1,   -5.1,   -5.0,  999.0,  999.0,  999.0,   -3.1,   -4.7,   -4.8,   -4.6,   -5.1,  999.0,   -5.5,   -5.2,   -5.1,  999.0,  999.0,  -11.3,  -11.0,  -11.1,  -12.6,  999.0,   -8.1,   -5.7,  -11.6,  -12.7,  -12.0,  -12.1,  999.0,  999.0,  999.0,  999.0,  999.0,  999.0,   -1.0,   -1.9,   -3.2,   -3.7,   -3.5,   -3.6,   -3.7,   -3.7,   -2.9,   -2.4,   -1.6,   -1.2,   -1.4,   -1.8,   -2.7,   -3.6,   -4.4,   -4.9,   -5.9,   -6.9,   -8.1,   -9.0,  -10.7,  -11.8,  -11.6,  -12.4,  -12.9,  -13.0,  -12.5,  -12.0,  -12.0,  -11.1,   -9.8,   -9.1,   -7.6,   -6.6,   -6.6,   -7.5,   -8.1,   -8.6,   -8.6,   -8.7,   -8.9,   -9.1,   -8.7,   -7.7,   -7.0,   -6.2,   -5.5,   -5.0,   -3.9,   -5.8,   -6.0
2011/09/07 00:20,   -4.5,   -5.8,   -6.0,   -6.3,   -6.1,   -6.1,   -6.1,   -6.5,   -7.0,   -6.3,   -6.8,   -6.5,   -6.4,   -5.9,   -6.6,   -5.8,   -4.4,   -4.0,   -2.0,   -0.5,    1.3,    1.8,    1.7,    1.9,  999.0,    2.1,    0.7,    0.6,    0.6,    0.4,    0.4,  999.0,   -1.3,   -0.8,    0.4,   -1.3,  999.0,   -0.3,    0.4,    0.1,  999.0,  999.0,  999.0,   -1.8,   -1.2,   -1.3,   -1.6,  999.0,   -1.9,   -1.4,   -1.2,   -1.6,   -1.8,   -1.8,   -1.3,   -1.3,   -1.7,   -2.5,   -3.6,   -4.4,   -4.9,   -5.5,   -6.8,   -8.4,   -9.6,  -10.1,  -10.6,  -10.9,  -11.4,  -11.6,  -11.6,  -11.5,  -11.1,  -10.5,  -10.3,  -10.1,   -9.3,   -8.1,   -7.0,   -6.3,   -5.7,   -5.9,   -6.4,   -7.2,   -8.0,   -8.2,   -8.2,   -7.6,   -6.7,   -5.3,   -3.9,   -3.4,   -2.2,   -1.1,   -0.6,   -0.4,   -0.3,    0.0
2011/09/07 00:30,   -3.7,   -5.3,   -6.1,   -5.9,   -5.7,   -6.4,   -5.8,   -6.3,   -5.3,   -4.2,   -4.2,   -4.6,   -4.5,   -5.0,   -5.1,   -5.9,   -5.9,   -5.2,   -4.3,   -2.4,   -0.5,   -0.3,   -2.0,   -0.3,    0.7,    0.7,   -0.3,   -0.3,    0.4,    0.5,   -0.6,   -0.8,   -0.1,    0.9,   -0.3,   -1.5,   -2.9,   -5.0,   -0.4,   -0.4,    0.4,   -1.0,   -1.8,   -0.5,   -1.7,   -0.1,   -0.0,   -0.5,   -0.8,   -0.7,   -0.5,   -0.3,   -0.3,   -0.4,   -0.7,   -1.2,   -2.3,   -3.8,   -4.3,   -4.4,   -4.5,   -5.3,   -6.2,   -7.1,   -7.9,   -8.8,   -9.5,   -9.9,  -10.0,  -10.0,  -10.0,  -10.1,  -10.3,  -10.0,   -9.9,   -9.6,   -8.9,   -7.8,   -6.7,   -5.6,   -5.3,   -5.5,   -6.4,   -7.1,   -7.9,   -8.3,   -7.9,   -6.9,   -5.6,   -4.5,   -3.1,   -2.2,   -1.7,   -1.0,   -0.3,   -0.5,   -0.6,   -0.7
2011/09/07 00:40,   -2.7,   -5.0,   -6.0,   -6.2,   -5.8,   -5.6,   -5.4,   -5.4,   -3.9,   -4.3,   -4.0,   -4.7,   -4.7,   -5.6,   -5.8,   -5.2,   -4.3,   -3.1,   -1.9,   -0.9,    0.3,    1.2,    1.5,    1.6,    2.4,    2.5,    2.4,    3.6,    3.1,  999.0,    2.5,    2.7,    3.0,    3.8,    1.3,    2.7,    1.5,   -0.3,    1.1,   -0.4,    0.2,    0.5,   -0.2,    0.1,   -0.1,   -0.5,   -1.3,   -1.3,   -2.1,   -2.6,   -2.1,   -1.6,   -1.1,   -0.8,   -0.5,   -0.8,   -1.9,   -2.9,   -3.5,   -4.0,   -4.5,   -4.6,   -4.9,   -5.1,   -6.2,   -5.6,   -6.3,   -6.5,   -6.9,   -7.3,   -7.8,   -8.4,   -8.6,   -8.3,   -7.6,   -7.4,   -6.7,   -5.2,   -4.1,   -3.0,   -1.6,   -0.6,   -0.3,   -0.4,   -0.4,   -0.5,   -0.5,   -0.5,   -0.4,   -0.3,   -0.3,   -0.4,   -0.5,   -0.5,   -0.2,   -0.0,    0.1,   -0.1
2011/09/07 00:50,   -3.6,   -5.5,   -4.5,   -4.5,   -3.8,   -3.6,   -3.8,   -4.5,   -4.7,   -4.3,   -4.3,   -5.0,   -5.6,   -4.7,   -5.3,   -4.2,   -5.0,   -4.2,   -3.2,   -1.4,   -0.4,   -0.0,    0.7,    0.8,    1.3,    1.6,    2.0,    2.1,    2.4,    3.3,    3.8,    2.7,    2.7,    0.9,    0.6,   -0.0,   -1.1,  999.0,  999.0,   -0.0,  999.0,  999.0,    0.1,   -0.4,   -1.0,   -2.1,  999.0,   -3.5,   -3.9,   -4.1,   -2.9,   -2.1,   -1.3,   -1.5,   -1.2,   -1.2,   -1.9,   -2.7,   -3.2,   -3.2,   -3.2,   -3.8,   -4.2,   -4.8,   -5.4,   -5.9,   -6.7,   -7.5,   -8.3,   -9.0,   -9.6,   -9.7,   -9.6,   -8.7,   -6.6,   -6.0,   -5.1,   -3.8,   -2.4,   -0.8,    0.5,    1.3,    1.9,    2.0,    2.0,    1.9,    1.9,    1.8,    1.7,    1.5,    1.1,    0.8,    0.5,    0.3,    0.5,    0.6,    0.3,   -0.1
2011/09/07 01:00,   -3.2,   -4.1,   -4.0,   -3.5,   -5.0,    6.5,   -4.3,    2.9,    2.7,    4.4,    2.7,    6.3,    7.5,    6.7,  999.0,   -5.5,   -4.7,   -4.3,   -3.2,   -2.0,   -1.5,   -2.0,   -1.2,   -0.4,   -0.8,   -0.5,   -0.2,   -0.2,    0.5,    1.7,    3.4,    1.5,    0.4,    0.7,    0.4,    1.7,    2.1,    2.6,    2.9,  999.0,  999.0,  999.0,    1.4,    0.9,    0.5,   -1.0,   -1.8,   -3.2,   -4.1,   -4.4,   -3.2,   -1.6,   -0.8,   -1.3,   -2.2,   -2.8,   -3.3,   -3.5,   -3.8,   -4.2,   -4.6,   -5.0,   -5.4,   -6.1,   -6.8,   -7.6,   -9.0,  -10.0,  -10.8,  -11.0,  -11.7,  -12.8,  -11.9,  -10.7,   -9.2,   -7.6,   -6.9,   -5.7,   -3.7,   -2.3,  999.0,  999.0,  999.0,    2.9,    2.7,    2.5,    2.2,    2.1,    2.0,    1.8,    1.9,    1.8,    1.6,    1.3,    1.2,    1.0,    0.6,    0.2
2011/09/07 01:10,   -2.9,   -3.7,   -4.0,   -4.6,   -5.2,   -4.0,   -4.2,   -3.0,   -2.8,   -3.3,   -4.6,   -5.3,   -5.8,   -6.0,   -5.3,   -5.4,   -5.2,   -4.3,   -3.3,   -2.2,   -1.8,   -1.5,   -1.4,   -1.1,   -0.4,   -0.1,    0.5,    1.6,    3.1,    4.0,    4.1,    3.4,    4.1,    2.7,    2.6,    3.1,    3.1,    3.6,    3.1,    3.9,  999.0,  999.0,    3.4,    3.0,    1.9,    0.7,   -0.6,   -1.8,   -2.7,   -2.6,   -1.5,    0.0,   -0.3,   -1.3,   -2.3,   -3.4,   -4.3,   -4.9,   -5.4,   -6.3,   -7.0,   -7.0,   -7.3,   -7.9,   -8.5,   -9.1,   -9.8,  -10.6,  -11.4,  -12.6,  -13.9,  -13.9,  -12.6,  -10.9,   -9.5,   -8.4,   -7.5,   -6.2,   -4.4,   -2.8,   -1.7,   -1.1,   -0.7,    0.1,    0.9,    1.6,    1.8,    1.7,    1.5,    1.4,    1.1,    0.8,    0.7,    0.7,    0.7,    0.5,    0.4,    0.2
2011/09/07 01:20,   -3.0,   -3.4,   -3.9,   -4.4,   -4.3,   -3.0,   -2.0,   -3.0,   -3.4,   -4.7,   -4.8,   -6.2,   -5.7,   -6.9,   -5.4,   -7.5,   -4.8,   -3.9,   -3.1,   -2.8,   -2.4,   -1.6,   -0.9,   -0.3,   -0.4,   -0.6,   -0.2,    0.7,    2.4,    2.6,    2.4,    2.0,    2.0,    2.7,    2.6,    2.3,    4.0,    3.4,    2.6,    3.1,  999.0,  999.0,    1.7,    1.4,    0.5,   -0.9,   -1.5,   -2.4,   -2.9,   -2.6,   -1.2,    0.3,   -0.1,   -1.7,   -3.1,   -4.7,   -5.9,   -6.6,   -7.1,   -7.7,   -8.5,   -9.2,  -10.0,  -10.9,  -11.7,  -12.5,  -13.3,  -14.4,  -15.6,  -15.9,  -15.2,  -14.3,  -12.3,  -10.3,   -8.7,   -7.0,   -5.9,   -4.7,   -3.5,   -2.1,   -0.9,   -0.2,    0.2,    0.5,    0.8,    1.0,    1.1,    1.3,    1.4,    1.5,    1.4,    1.0,    0.8,    0.8,    0.7,    0.5,    0.4,    0.3
2011/09/07 01:30,  999.0,  999.0,  999.0,  999.0,  999.0,  999.0,  999.0,  999.0,  999.0,  999.0,  999.0,  999.0,  999.0,  999.0,  999.0,  999.0,  999.0,  999.0,  999.0,  999.0,   -2.2,  999.0,  999.0,  999.0,  999.0,  999.0,  999.0,  999.0,  999.0,    3.0,    3.6,    3.3,    2.0,    2.6,    2.5,    2.6,    2.1,    1.9,  999.0,  999.0,    0.9,    2.3,    1.2,    0.8,   -0.0,   -0.9,   -1.9,   -2.3,   -2.7,   -2.1,   -0.2,    0.7,   -1.0,   -2.9,   -3.6,   -4.0,   -4.3,   -4.9,   -6.1,   -7.1,   -8.2,   -9.2,  -10.1,  -10.7,  -11.4,  -12.4,  -13.8,  -15.5,  -16.4,  -15.8,  -14.6,  -12.7,  -10.7,   -8.8,   -7.1,   -5.7,   -3.8,   -2.5,   -0.8,    1.1,    1.7,    2.2,    2.4,    2.6,    2.7,    2.7,    2.7,    2.6,    2.1,    1.4,    0.9,    0.6,    0.4,    0.3,    0.2,    0.1,    0.1,    0.0
2011/09/07 01:40,   -1.8,   -3.5,   -2.9,  999.0,   -3.7,   -2.6,   -2.4,   -2.6,   -2.8,   -4.0,   -4.9,   -5.9,   -6.9,   -5.7,   -5.2,   -4.6,   -4.0,   -3.9,   -3.1,   -2.3,   -1.4,  999.0,  999.0,   -6.9,  999.0,  999.0,  999.0,  999.0,    2.6,    2.4,    3.4,    1.8,    1.4,    2.1,    1.5,    2.0,    2.5,    1.9,    1.7,    1.1,    2.3,  999.0,    2.2,  999.0,    0.4,   -0.3,   -1.1,   -2.0,   -2.4,   -2.0,   -0.7,    0.4,    0.3,   -0.9,   -1.6,   -2.7,   -4.0,   -5.2,   -6.3,   -7.2,   -8.5,   -9.4,  -10.1,  -10.5,  -11.3,  -12.4,  -14.6,  -15.7,  -15.0,  -13.8,  -12.8,  -10.5,   -8.1,   -5.7,   -4.1,  999.0,  999.0,    1.9,    2.4,    2.6,    2.6,    2.6,    2.5,    2.5,    2.6,    2.7,    2.7,    2.6,    2.1,    1.4,    0.9,    0.6,    0.5,    0.4,    0.4,    0.5,    0.4,    0.4
2011/09/07 01:50,   -2.7,   -3.9,   -3.5,   -2.6,  999.0,  999.0,   -2.6,   -2.9,  999.0,   -4.7,   -1.6,   -0.3,  999.0,  999.0,  999.0,   -2.0,   -2.8,    1.1,    1.1,   -3.4,  999.0,  999.0,  999.0,  999.0,  999.0,  999.0,  999.0,    3.9,    3.3,    2.1,    3.3,    2.7,    1.9,    2.3,    3.0,    3.3,    3.3,    3.0,    2.9,    2.6,  999.0,  999.0,   -0.1,    0.2,    0.1,   -0.6,   -1.3,   -2.3,   -2.7,   -2.2,   -0.9,    0.6,    1.0,    0.6,   -0.4,   -1.7,   -3.1,   -4.4,   -5.5,   -6.2,   -7.1,   -8.0,   -8.8,  -10.0,  -11.8,  -13.8,  -14.8,  -15.2,  -13.7,  -12.1,   -9.7,   -7.8,   -5.7,   -3.4,   -1.3,    0.0,    0.8,    1.3,    2.2,    2.7,    2.9,    3.0,    3.1,    2.9,    2.4,    2.0,    1.8,    1.6,    1.3,    0.8,    0.4,    0.3,    0.1,   -0.1,   -0.3,   -0.3,   -0.4,   -0.6
2011/09/07 02:00,   -1.9,   -2.6,  999.0,  999.0,   -2.5,   -2.6,   -3.3,   -2.9,   -4.0,   -5.0,   -3.0,   -0.5,   -5.5,   -3.6,   -2.5,   -0.9,   -1.3,   -1.9,    2.8,    1.7,    1.4,   -2.2,   -2.0,   -0.5,    0.6,    2.4,    1.7,    3.1,    2.7,    3.1,    2.3,    1.8,    2.2,    2.1,    2.7,    2.8,    3.1,    3.0,    2.8,  999.0,  999.0,  999.0,  999.0,  999.0,    1.3,    0.4,   -0.8,   -1.7,   -1.7,   -0.8,    0.3,    1.3,    1.6,    1.3,    0.3,   -1.2,   -2.8,   -4.7,   -6.3,   -8.3,   -9.0,  -10.1,  -10.7,  -11.7,  -13.3,  -14.2,  -14.7,  -13.9,  -12.5,  -11.0,   -8.6,   -5.8,   -4.0,   -2.2,   -0.6,    1.0,    1.9,    2.7,    3.2,    3.6,    3.5,    3.4,    3.4,    3.1,    2.5,    2.2,    2.1,    1.6,    1.1,    0.7,    0.3,    0.2,    0.1,    0.0,   -0.3,   -0.4,   -0.4,   -0.5
2011/09/07 02:10,   -1.9,   -2.9,   -2.3,   -1.7,   -1.4,   -2.4,   -3.0,   -3.9,   -4.8,   -4.8,   -4.2,   -4.3,   -5.1,   -5.3,   -5.1,   -4.8,   -5.5,   -4.9,   -4.1,   -7.2,   -8.1,   -9.1,   -6.4,   -5.5,  999.0,  999.0,  999.0,  999.0,    0.9,    0.7,    1.7,    1.6,    2.7,    2.0,    2.7,    3.7,    3.4,    4.0,    2.5,  999.0,  999.0,  999.0,  999.0,    2.3,    1.0,    0.9,    0.3,   -0.6,   -0.5,    0.8,    1.4,    1.8,    2.2,    2.3,    1.3,   -0.4,   -2.5,   -4.2,   -5.3,   -6.7,   -8.2,   -9.5,  -10.9,  -12.0,  -13.7,  -14.7,  -14.2,  -13.2,  -11.3,   -9.5,   -7.7,   -5.4,   -3.4,   -1.7,   -0.1,    1.5,    2.6,    3.5,    3.9,    3.9,    3.5,    3.0,    2.6,    2.6,    2.4,    2.1,    2.0,    1.5,    0.8,    0.4,    0.3,   -0.0,   -0.3,   -0.7,   -0.8,   -0.9,   -1.0,   -1.3
2011/09/07 02:20,   -1.4,   -2.6,   -2.0,   -1.8,   -3.1,   -3.4,   -4.6,   -4.6,   -4.9,   -4.8,   -4.7,   -5.2,   -4.9,   -5.2,   -3.8,   -3.5,   -3.7,   -4.5,   -3.9,   -3.3,   -2.7,   -2.6,   -0.8,   -0.6,    1.8,    3.1,    4.8,    6.5,    6.9,    6.1,    5.0,    3.7,    3.4,    3.7,    3.9,    3.5,    3.7,    3.1,    2.5,    3.2,  999.0,  999.0,    2.2,    2.6,    1.7,   -0.2,   -0.8,   -1.2,   -0.3,    1.0,    1.4,    1.1,    1.4,    2.0,    1.1,   -0.6,   -2.3,   -3.7,   -4.8,   -6.3,   -7.8,   -9.4,  -11.2,  -13.2,  -14.3,  -14.7,  -13.8,  -12.4,  -10.7,   -9.1,   -7.9,   -5.8,   -4.0,   -2.6,   -1.0,    0.4,    1.6,    2.8,    4.0,    4.2,    3.7,    2.8,    2.2,    2.1,    2.2,    2.1,    1.4,    1.0,    0.5,   -0.1,   -0.2,   -0.4,   -0.5,   -0.8,   -1.1,   -1.2,   -1.2,   -1.3
2011/09/07 02:30,   -1.4,   -1.9,   -1.2,   -1.4,   -1.8,   -2.2,   -3.1,   -3.3,   -3.7,   -3.8,   -4.0,   -4.5,   -4.8,   -4.9,   -4.6,   -4.3,   -4.0,   -3.4,   -3.4,   -3.0,   -2.3,   -1.1,   -0.1,    0.1,    0.1,    0.8,    2.2,    3.5,    2.5,    3.0,    2.0,    1.0,    0.7,    0.3,    1.1,    1.9,    2.0,    2.2,    2.8,    2.2,  999.0,  999.0,    2.9,    1.5,    0.5,   -0.7,   -1.9,   -2.0,   -0.8,    1.2,    2.1,    1.6,    1.8,    2.6,    2.3,    0.7,   -1.2,   -3.1,   -5.1,   -7.1,   -8.7,  -10.6,  -12.2,  -14.0,  -15.1,  -15.1,  -13.8,  -12.6,  -11.2,   -9.2,   -7.4,   -5.4,   -4.4,   -2.9,   -1.2,    0.1,    1.1,    2.4,    3.8,    4.7,    4.8,    4.4,    3.4,    2.6,    2.6,    2.8,    2.5,    1.9,    1.2,    0.6,    0.2,   -0.1,   -0.5,   -0.8,   -1.0,   -1.2,   -1.4,   -1.6
2011/09/07 02:40,   -1.4,   -1.3,   -1.1,   -1.7,   -2.5,   -3.3,   -4.2,   -4.9,   -5.0,   -5.2,   -5.5,   -5.5,   -5.6,   -5.6,   -5.2,   -4.0,   -2.6,   -2.6,   -2.1,   -2.6,   -2.2,   -2.0,   -1.5,   -0.4,   -0.1,   -0.0,    0.9,    1.8,    3.3,    3.6,    2.8,    2.1,    2.6,    3.3,    4.1,    3.9,    3.7,    3.7,    3.2,    3.0,  999.0,  999.0,  999.0,    2.1,    0.6,   -0.0,   -2.0,   -1.0,    0.3,    2.0,    2.2,    1.6,    1.9,    3.1,    2.9,    0.9,   -0.9,   -3.1,   -4.8,   -6.8,   -8.8,  -10.8,  -12.8,  -14.3,  -15.8,  -15.8,  -14.6,  -12.5,  -10.9,   -9.2,   -7.4,   -6.0,   -4.6,   -3.5,   -2.3,   -0.6,    0.5,    1.6,    3.1,    3.7,    4.2,    4.5,    4.2,    3.2,    2.7,    2.7,    2.6,    2.3,    1.7,    0.8,    0.1,   -0.5,   -1.0,   -1.4,   -1.7,   -2.0,   -2.4,   -2.6
2011/09/07 02:50,   -5.0,   -2.3,   -5.1,   -5.5,   -2.2,   -2.6,   -3.5,   -3.9,   -4.9,   -4.6,   -6.1,   -6.2,   -5.7,   -5.4,   -2.1,   -0.3,    0.3,  999.0,  999.0,   -0.2,    3.2,    3.8,    4.3,    2.1,    3.8,    4.9,   -0.0,    0.7,  999.0,  999.0,  999.0,    2.1,    2.3,  999.0,    4.2,  999.0,  999.0,  999.0,  999.0,  999.0,  999.0,  999.0,    4.1,    2.1,    0.2,   -1.6,   -1.7,   -0.3,    0.6,    1.4,    1.1,    0.1,    0.5,    1.6,    2.3,    1.6,    0.3,   -1.3,   -3.4,   -5.6,   -7.8,   -9.8,  -11.4,  -13.0,  -14.2,  -14.5,  -13.9,  -12.5,  -10.5,   -8.8,   -7.3,   -5.7,   -4.9,   -3.8,   -2.6,   -1.3,   -0.1,    1.2,    2.8,    3.7,    4.2,    4.4,    4.6,    4.1,    2.8,    1.8,    1.5,    1.4,    1.1,    0.8,    0.3,   -0.3,   -0.9,   -1.6,   -2.1,   -2.2,   -2.4,   -2.6
2011/09/07 03:00,   -1.4,   -1.7,  999.0,  999.0,  999.0,  999.0,  999.0,  999.0,  999.0,   -5.2,  999.0,   -6.4,   -5.7,   -4.9,   -3.9,  999.0,   -2.9,   -2.0,   -2.4,   -1.9,   -2.4,   -2.0,   -1.2,   -0.4,    0.0,   -0.9,   -0.2,    1.5,    2.6,    3.7,    4.6,    5.1,    4.3,    3.9,    5.1,    5.4,  999.0,  999.0,  999.0,  999.0,  999.0,  999.0,    2.9,    0.5,   -1.0,   -1.1,   -1.2,   -0.9,    0.1,    1.2,    1.3,    0.3,    0.6,    1.6,    2.4,    2.3,    1.3,    0.3,   -1.6,   -3.6,   -5.6,   -7.6,   -9.4,  -10.9,  -12.4,  -13.2,  -12.1,  -10.9,   -9.6,   -8.6,   -7.1,   -5.9,   -5.5,   -4.3,   -2.3,   -0.9,   -0.1,    0.6,    1.7,    3.2,    4.2,    4.2,    4.0,    4.2,    4.1,    3.1,    2.1,    1.6,    1.1,    0.4,   -0.7,   -1.5,   -1.7,   -1.9,   -2.1,   -2.3,   -2.9,   -3.1
2011/09/07 03:10,   -0.6,  999.0,  999.0,  999.0,   -2.0,   -2.2,   -3.9,  999.0,  999.0,  999.0,  999.0,  999.0,  999.0,   -4.1,   -3.3,   -3.0,   -2.4,   -2.1,   -1.8,   -1.6,   -0.8,    0.3,    0.7,    0.4,   -0.2,   -0.4,    0.7,    1.7,    2.3,  999.0,    3.8,    5.3,    5.0,    4.0,    4.5,    4.2,    4.7,    4.8,  999.0,  999.0,  999.0,    3.9,  999.0,  999.0,    0.4,   -0.4,   -1.0,   -1.6,   -1.6,   -1.1,   -0.6,   -0.4,   -0.3,    0.4,    1.2,    1.8,    1.6,    0.6,   -0.9,   -2.7,   -4.4,   -6.0,   -8.0,   -9.6,  -11.0,  -12.3,  -12.8,  -11.9,  -11.2,  -10.6,   -9.7,   -9.2,   -8.7,   -7.2,   -5.1,   -3.4,   -1.6,   -0.3,    0.6,    2.0,    3.7,    4.3,    3.9,    3.4,    3.4,    3.6,    2.8,    1.8,    1.2,    0.6,   -0.2,   -0.9,   -1.7,   -2.2,   -2.4,   -2.3,   -2.5,   -3.0
2011/09/07 03:20,   -0.4,  999.0,   -1.5,   -1.7,   -2.0,   -2.4,  999.0,   -2.7,   -4.2,   -4.7,   -5.7,   -5.9,   -5.6,   -3.6,   -2.8,   -2.2,   -1.9,   -2.1,   -2.2,   -2.8,   -2.8,   -1.8,   -0.6,   -0.5,   -0.6,   -1.1,   -1.9,   -2.1,   -0.4,    2.0,    3.7,    4.8,    4.8,    3.6,    2.7,    3.5,    4.6,  999.0,  999.0,  999.0,  999.0,  999.0,  999.0,  999.0,    0.9,   -0.2,   -0.4,   -0.9,   -1.6,   -2.1,   -2.3,   -1.8,   -1.3,   -0.7,    0.4,    1.1,    1.3,    0.9,    0.1,   -1.0,   -2.6,   -4.0,   -6.1,   -7.7,   -8.7,  -10.1,  -11.4,  -12.3,  -11.8,  -11.4,  -10.9,  -10.0,   -8.4,   -6.9,   -5.3,   -3.2,   -1.6,   -0.5,    0.7,    1.9,    3.2,    3.5,    3.1,    2.6,    2.6,    2.6,    2.6,    1.8,    0.9,    0.5,    0.2,   -0.3,   -0.9,   -1.5,   -1.9,   -2.2,   -2.4,   -2.4
2011/09/07 03:30,   -0.5,   -2.3,   -2.7,   -1.8,   -2.2,   -3.1,   -4.1,  999.0,   -4.9,  999.0,   -6.3,   -6.3,   -6.0,   -3.3,   -2.5,   -1.6,   -1.3,   -1.3,   -1.3,   -1.5,   -1.5,   -1.0,   -0.7,   -0.8,   -0.5,    0.3,    0.6,    0.2,    1.3,  999.0,  999.0,    2.8,  999.0,    2.7,    1.4,    2.8,  999.0,  999.0,  999.0,    3.2,  999.0,  999.0,  999.0,  999.0,    3.7,    1.6,    0.5,   -0.3,   -1.0,   -1.7,   -2.2,   -2.5,   -2.6,   -2.0,   -1.1,   -0.4,   -0.1,   -0.2,   -1.0,   -2.2,   -3.4,   -4.4,   -6.0,   -7.3,   -8.4,   -9.5,  -10.7,  -11.6,  -11.6,  -10.7,  -10.0,   -9.0,   -7.7,   -6.3,   -4.7,   -3.3,   -1.3,    0.2,    1.7,    3.1,    3.5,    3.3,    3.0,    2.6,    2.5,    2.7,    2.5,    1.9,    1.2,    0.4,   -0.2,   -0.7,   -1.1,   -1.8,   -2.2,   -2.6,   -3.0,   -3.0
2011/09/07 03:40,  999.0,  999.0,   -2.3,   -2.2,  999.0,   -4.0,  999.0,  999.0,  999.0,  999.0,  999.0,   -5.5,  999.0,   -3.0,   -1.6,   -0.5,   -0.6,   -0.3,   -0.1,   -0.3,   -0.2,   -0.5,   -0.4,   -0.1,   -0.3,   -0.3,   -0.3,   -0.0,    0.0,    0.5,  999.0,  999.0,    3.2,    2.8,    3.0,  999.0,  999.0,  999.0,  999.0,  999.0,  999.0,    3.6,    3.8,    3.8,    4.2,    2.6,    1.2,    0.5,   -1.0,   -1.4,   -1.8,   -2.0,   -1.4,   -0.6,    0.5,    1.0,    0.5,   -0.9,   -2.4,   -4.2,   -6.0,   -7.7,   -9.1,  -10.3,  -11.7,  -12.6,  -12.8,  -12.2,  -11.2,  -10.1,   -9.3,   -8.3,   -6.5,   -4.7,   -2.9,   -1.8,   -0.8,    0.4,    2.0,    2.9,    3.1,    3.2,    2.8,    2.5,    2.3,    2.3,    2.3,    2.1,    1.6,    0.8,   -0.1,   -0.7,   -1.1,   -1.7,   -2.2,   -2.6,   -2.9,   -3.0
2011/09/07 03:50,  999.0,   -5.1,   -4.3,   -3.0,   -3.8,  999.0,  999.0,  999.0,  999.0,  999.0,   -5.9,   -6.2,  999.0,   -3.0,   -1.9,   -0.9,    0.3,  999.0,    1.0,    0.9,  999.0,    0.7,    0.5,    0.5,    0.1,    0.2,  999.0,  999.0,  999.0,  999.0,  999.0,  999.0,  999.0,  999.0,  999.0,  999.0,  999.0,  999.0,  999.0,  999.0,  999.0,  999.0,  999.0,    3.7,    3.1,    2.5,    1.1,    0.8,    0.1,   -0.5,   -1.1,   -1.1,   -0.5,    0.5,    1.7,    1.7,    0.5,   -1.2,   -3.6,   -5.4,   -7.0,   -8.9,  -10.7,  -11.9,  -13.1,  -13.6,  -13.2,  -11.9,  -10.3,   -9.3,   -8.9,   -7.6,   -5.6,   -3.7,   -1.9,   -0.5,    0.3,    1.6,    2.4,    3.1,    3.6,    3.6,    3.2,    2.9,    2.4,    2.1,    1.9,    1.9,    1.6,    1.2,   -0.0,   -1.0,   -1.3,   -1.7,   -2.2,   -2.6,   -3.1,   -3.4
2011/09/07 04:00,  999.0,  999.0,  999.0,  999.0,  999.0,  999.0,  999.0,  999.0,   -8.5,   -7.4,   -6.8,   -6.4,   -4.2,   -6.3,   -7.0,   -6.0,   -5.2,  999.0,    0.9,  999.0,   -0.4,  999.0,  999.0,   -0.7,  999.0,   -1.1,   -3.0,   -1.9,   -1.0,  999.0,    0.8,   -0.3,   -0.9,   -0.9,    0.1,    0.4,    0.4,    1.3,    1.2,    2.9,  999.0,    2.4,  999.0,  999.0,    1.9,    0.8,    0.6,    0.5,    0.1,    0.2,    0.2,    0.0,    1.1,    2.5,    3.0,    2.7,    1.3,   -0.5,   -2.7,   -4.9,   -6.4,   -8.3,   -9.8,  -11.4,  -12.8,  -13.5,  -13.1,  -11.7,  -10.5,   -9.1,   -7.5,   -6.4,   -5.0,   -2.4,   -1.5,    0.2,    0.8,    1.8,    1.8,    2.2,    2.7,    2.9,    2.6,    2.3,    2.1,    2.0,    1.9,    1.5,    1.3,    1.1,    0.1,   -0.9,   -1.6,   -1.9,   -2.1,   -2.3,   -2.9,   -3.3
2011/09/07 04:10,   -5.9,   -5.7,   -4.3,   -5.0,   -6.9,   -7.3,   -7.7,   -7.1,   -6.0,   -5.8,   -5.2,   -4.7,   -3.8,   -3.9,   -3.1,   -2.4,   -2.2,   -1.4,   -1.2,   -0.3,    0.6,    0.2,    0.9,    1.0,    1.9,    0.4,    1.2,    0.1,    0.7,   -0.8,   -1.2,   -1.6,   -2.4,   -2.1,   -2.7,   -2.9,    0.7,   -0.3,    1.0,  999.0,    3.1,    1.9,    3.1,    3.3,    3.2,    3.1,    3.0,    2.2,    1.3,    0.8,    0.6,    0.8,    2.0,    3.5,    3.8,    3.3,    2.1,    0.6,   -1.5,   -3.4,   -5.6,   -7.7,   -9.7,  -11.9,  -13.2,  -13.7,  -13.5,  -12.2,  -10.3,   -8.4,   -6.4,   -5.1,   -3.2,   -2.0,   -0.6,    0.2,    1.4,    2.3,    3.3,    4.4,    4.9,    4.6,    3.8,    3.1,    2.6,    2.3,    2.0,    1.7,    1.2,    1.0,    0.4,   -1.1,   -1.8,   -2.1,   -2.3,   -2.5,   -2.8,   -3.6
2011/09/07 04:20,   -6.4,   -5.5,   -5.0,   -6.3,  999.0,   -5.6,   -5.8,   -6.0,   -6.3,   -6.1,   -4.3,   -4.0,   -3.5,   -3.0,   -2.3,   -1.2,   -1.5,   -0.4,    0.5,    0.6,    1.4,    1.0,    1.4,    1.2,    1.0,    0.3,    0.2,   -0.2,   -0.5,   -1.6,   -1.4,   -1.8,   -0.8,   -0.3,   -2.2,   -2.2,   -0.7,    1.3,   -0.4,  999.0,    4.2,    3.6,    2.7,    3.1,    3.0,    2.2,    1.6,    1.1,    1.2,    1.0,    1.3,    2.2,    3.1,    3.6,    3.7,    3.1,    1.7,   -0.2,   -2.0,   -3.6,   -5.8,   -7.9,   -9.8,  -11.5,  -12.6,  -12.9,  -12.3,  -11.1,   -9.5,   -8.3,   -6.7,   -5.3,   -4.6,   -3.7,   -3.0,   -2.3,   -1.4,    0.5,    2.1,    3.6,    4.3,    4.2,    3.1,    2.3,    1.8,    1.4,    1.1,    0.7,    0.3,    0.2,   -0.3,   -1.4,   -2.0,   -2.2,   -2.4,   -2.5,   -3.1,   -3.9
2011/09/07 04:30,   -6.9,   -5.3,   -5.5,   -5.7,   -6.6,   -6.2,   -6.9,   -6.8,   -6.7,   -5.3,   -4.3,   -3.5,   -2.6,   -2.2,   -2.1,   -1.6,    0.8,    1.6,    2.6,    2.7,    2.6,    1.9,    2.0,    2.1,    1.6,    1.3,   -0.6,   -0.7,   -1.3,   -1.9,   -1.6,   -2.1,   -1.1,   -0.3,    0.1,    0.6,    1.9,    2.7,    3.1,    3.1,    2.5,    2.7,    2.3,    1.6,    1.4,    0.9,    0.2,    0.0,    0.1,    0.3,    1.1,    2.3,    2.9,    3.6,    4.1,    3.6,    2.2,    0.7,   -0.9,   -2.4,   -4.1,   -5.8,   -7.9,   -9.8,  -11.5,  -11.9,  -11.5,  -10.2,   -8.9,   -7.1,   -5.4,   -3.4,   -2.3,   -0.9,    0.7,    1.9,    2.9,    3.4,    3.6,    3.4,    3.5,    3.3,    2.3,    1.5,    0.8,    0.2,    0.0,   -0.0,   -0.2,   -0.2,   -0.4,   -1.4,   -2.1,   -2.3,   -2.2,   -2.5,   -3.0,   -4.0
2011/09/07 04:40,    1.8,    0.2,  999.0,    1.2,  999.0,  999.0,  999.0,  999.0,  999.0,  999.0,   -5.6,   -5.2,   -4.8,   -3.9,   -2.7,    0.2,    5.7,    4.9,    5.3,    5.8,    5.5,    6.0,    5.2,    6.0,    6.0,    5.6,    2.2,    4.4,    4.6,  999.0,  999.0,    1.3,  999.0,    2.7,  999.0,    3.9,    3.6,    4.2,  999.0,    3.4,    2.3,  999.0,   -0.2,   -1.0,   -1.7,   -2.1,   -2.4,   -2.8,   -2.2,   -0.8,    0.6,    2.2,    2.9,    3.5,    3.6,    3.3,    2.3,    0.7,   -1.0,   -2.8,   -4.5,   -6.8,   -9.1,  -10.2,  -11.3,  -11.2,  -10.2,   -9.2,   -7.3,   -5.0,   -2.9,   -0.8,    0.5,    1.3,    2.2,    3.0,    3.5,    3.9,    4.0,    3.4,    3.0,    2.7,    1.7,    0.6,   -0.0,   -0.4,   -0.6,   -0.6,   -0.7,   -0.6,   -0.5,   -1.1,   -1.9,   -2.6,   -2.8,   -2.8,   -3.2,   -4.0
2011/09/07 04:50,   -4.1,  999.0,   -5.0,  999.0,  999.0,  999.0,  999.0,  999.0,  999.0,   -5.5,   -6.1,   -4.4,   -3.0,  999.0,  999.0,  999.0,  999.0,    4.7,    3.8,    5.2,    5.4,    6.2,    4.4,    3.5,  999.0,  999.0,  999.0,  999.0,  999.0,    0.9,    0.3,   -0.2,  999.0,  999.0,    0.5,  999.0,  999.0,  999.0,  999.0,  999.0,    1.3,    0.7,  999.0,  999.0,  999.0,  999.0,  999.0,   -2.9,   -2.5,   -1.5,   -1.4,    0.1,    1.0,    2.2,    2.9,    2.5,    1.6,    0.1,   -1.7,   -3.6,   -5.6,   -7.6,   -9.0,   -9.9,  -10.2,  -10.0,   -9.4,   -8.6,   -7.4,   -5.2,   -2.8,   -0.4,    0.3,    1.3,    1.6,    2.1,    2.9,    3.9,    4.4,    4.5,    3.3,    2.0,    1.0,   -0.3,   -0.9,   -1.0,   -1.0,   -1.0,   -1.1,   -1.0,   -0.9,   -0.9,   -1.3,   -2.1,   -2.9,   -3.0,   -3.5,  999.0
2011/09/07 05:00,  999.0,  999.0,  999.0,  999.0,  999.0,  999.0,  999.0,  999.0,   -0.8,  999.0,   -4.1,   -4.6,   -3.8,   -3.2,   -2.2,   -1.0,   -0.5,    0.4,    0.9,    1.7,    2.2,    2.4,    2.9,    3.4,  999.0,  999.0,  999.0,    2.5,    1.8,    0.5,    0.2,  999.0,  999.0,   -0.8,   -0.3,  999.0,  999.0,  999.0,  999.0,  999.0,    2.6,    1.9,    0.7,  999.0,  999.0,  999.0,  999.0,   -2.4,   -2.5,   -2.3,   -1.9,   -1.0,   -0.1,    0.9,    1.6,    1.7,    0.5,   -0.9,   -1.9,   -3.9,   -6.6,   -8.5,   -9.2,   -9.7,   -9.7,   -9.1,   -8.4,   -7.8,   -6.3,   -4.3,   -2.4,   -0.6,    0.6,    1.2,    1.6,    2.2,    2.7,    3.1,    3.1,    2.8,    1.9,    1.6,    0.9,   -0.3,   -1.0,   -1.0,   -0.9,   -1.1,   -1.1,   -1.1,   -1.0,   -1.0,   -1.6,   -2.5,   -2.7,  999.0,  999.0,  999.0
2011/09/07 05:10,  999.0,  999.0,  999.0,  999.0,  999.0,  999.0,  999.0,  999.0,  999.0,   -4.2,  999.0,  999.0,   -3.7,   -3.2,   -1.4,   -1.0,   -0.4,    0.1,    0.4,    0.7,    1.7,    1.6,  999.0,  999.0,    2.8,    4.0,    3.2,    2.2,    1.5,    1.1,   -0.0,   -1.1,   -1.8,   -2.2,   -1.7,   -0.2,  999.0,  999.0,  999.0,  999.0,  999.0,    2.9,    2.3,    2.2,  999.0,  999.0,  999.0,   -0.5,   -2.3,   -2.5,   -1.4,   -0.9,   -0.4,    0.6,    1.4,    0.9,   -0.7,   -2.5,   -4.9,   -7.3,   -9.1,  -10.7,  -11.9,  -12.3,  -11.4,   -9.9,   -8.9,   -8.0,   -6.4,   -4.7,   -2.9,   -1.7,   -0.6,    0.4,    1.1,    1.8,    2.4,    2.9,    2.9,    2.9,    2.5,    1.5,    0.9,    0.4,   -0.6,   -0.8,   -0.7,   -0.6,   -0.7,   -0.8,   -0.7,   -0.6,   -1.1,   -2.1,  999.0,  999.0,  999.0,  999.0
2011/09/07 05:20,  999.0,  999.0,  999.0,  999.0,  999.0,  999.0,  999.0,  999.0,  999.0,  999.0,  999.0,  999.0,  999.0,  999.0,   -0.9,   -0.2,    0.6,    0.9,    1.1,    1.9,    2.1,    1.9,    2.0,    3.2,    3.3,    3.5,    2.7,    1.9,    1.2,    0.5,   -0.2,   -1.1,   -2.1,   -2.0,   -1.8,   -1.4,    1.2,  999.0,  999.0,  999.0,  999.0,    3.2,    2.5,  999.0,  999.0,  999.0,    1.5,    0.4,   -0.8,   -1.3,   -1.0,   -1.3,   -0.7,   -0.1,   -0.3,   -1.8,   -4.1,   -5.9,   -7.9,   -9.6,  -11.4,  -12.6,  999.0,  -14.1,  999.0,  -10.5,   -8.3,   -6.5,   -4.4,   -2.6,   -1.1,    0.3,    1.1,    1.7,    1.6,    1.6,    2.0,    2.8,    2.8,    2.7,    2.7,    2.1,    0.2,   -0.8,   -1.5,   -1.7,   -1.5,   -1.6,   -1.5,   -1.5,   -1.3,   -1.4,   -1.5,  999.0,  999.0,  999.0,  999.0,  999.0
2011/09/07 05:30,  999.0,   -4.8,  999.0,   -6.4,   -7.2,   -7.4,   -6.6,  999.0,   -5.7,   -5.8,   -4.2,   -3.6,   -3.0,   -2.5,   -0.9,  999.0,  999.0,    0.9,    1.1,    1.9,    2.0,    2.0,    2.1,    2.7,    3.2,    3.3,  999.0,    1.8,    0.9,  999.0,   -0.1,   -1.7,   -2.9,   -2.6,   -1.9,   -1.2,   -0.3,  999.0,  999.0,  999.0,  999.0,  999.0,  999.0,  999.0,    1.3,    1.0,   -0.7,   -1.4,   -1.7,   -1.4,   -1.1,   -1.3,   -1.0,    0.1,   -0.7,   -2.5,   -4.5,   -6.5,   -8.8,  -10.8,  -12.3,  999.0,  999.0,  999.0,  -11.3,   -9.2,   -7.3,   -4.6,   -1.8,   -0.3,    2.1,  999.0,    3.1,    3.3,    3.0,    2.8,    2.5,    2.3,    2.4,    2.4,    2.2,    1.6,   -0.1,   -1.5,   -2.2,   -2.4,   -2.3,   -2.3,   -2.0,   -2.1,  999.0,   -2.0,   -1.9,   -2.0,  999.0,   -3.6,  999.0,  999.0
2011/09/07 05:40,   -2.1,   -5.8,   -5.1,   -5.9,   -1.9,   -2.0,   -3.6,  999.0,  999.0,    0.1,   -4.0,   -2.9,   -2.1,   -1.4,  999.0,  999.0,    1.2,    1.8,    2.3,    2.4,    2.6,    2.8,    2.7,    2.8,    2.9,    3.1,    3.0,    2.7,    0.9,    0.9,    0.5,    0.1,   -1.9,  999.0,  999.0,   -1.1,   -0.2,    1.0,  999.0,  999.0,  999.0,  999.0,  999.0,  999.0,    1.6,    1.1,    0.5,   -0.1,   -0.1,   -0.5,   -0.8,   -0.6,   -0.6,   -1.1,   -2.8,   -4.8,   -6.3,   -8.3,  -10.1,  -10.9,  -11.5,  999.0,  -11.9,  -10.7,   -9.2,   -7.9,   -5.8,   -4.4,   -2.6,   -1.6,   -0.3,    0.3,    0.2,   -0.6,   -0.8,   -0.6,   -0.2,    0.1,    0.7,    1.5,    1.3,    0.7,   -1.0,   -2.1,   -2.5,   -3.0,   -3.3,   -2.9,   -2.8,   -2.8,   -2.7,   -2.5,   -2.2,   -1.9,   -2.4,   -2.7,   -3.8,   -5.1
2011/09/07 05:50,  999.0,   -5.8,   -5.5,  999.0,  999.0,  999.0,   -6.3,  999.0,  999.0,  999.0,   -4.0,   -3.2,   -2.5,   -2.1,  999.0,    0.0,  999.0,    1.5,    1.8,    2.0,    2.0,    2.0,    2.2,    2.6,    3.0,    3.6,    3.7,    3.1,  999.0,    1.2,    0.8,    0.5,   -1.6,  999.0,   -2.4,   -1.5,    0.3,  999.0,  999.0,  999.0,  999.0,  999.0,  999.0,  999.0,    1.4,    1.0,    0.3,   -0.4,   -0.6,   -0.9,   -1.2,   -2.1,   -4.4,   -6.3,   -8.3,  -10.3,  -11.8,  -12.6,  -12.7,  -12.4,  -11.8,  -10.2,   -9.0,   -8.7,   -7.3,   -6.3,   -5.6,   -4.7,   -4.1,   -3.7,   -3.4,   -3.7,   -3.9,   -3.7,   -3.0,   -2.1,   -1.4,   -1.4,   -1.6,   -1.2,   -0.1,   -0.4,   -1.8,   -3.0,   -3.2,   -3.4,   -3.5,   -3.1,   -2.9,   -2.7,   -2.7,   -2.6,   -2.7,   -2.3,   -2.6,   -3.0,   -3.6,   -4.9
2011/09/07 06:00,  999.0,   -4.3,   -5.4,  999.0,   -6.7,   -7.0,   -6.2,   -4.5,  999.0,   -4.1,   -3.2,   -2.2,   -2.2,   -1.7,   -0.6,  999.0,  999.0,    2.4,    2.1,    2.0,    2.0,  999.0,    2.3,    2.3,    2.9,    3.4,    3.9,  999.0,  999.0,    1.7,    0.8,    0.6,   -0.3,   -1.0,  999.0,  999.0,   -1.0,    0.3,  999.0,  999.0,  999.0,  999.0,  999.0,  999.0,    1.1,    0.7,    0.7,   -0.5,   -0.4,   -0.8,   -2.1,   -4.5,   -6.7,   -8.9,  -10.6,  -11.8,  -12.3,  -12.2,  -11.9,  -10.8,   -9.6,   -8.9,   -8.1,   -7.9,   -6.6,   -6.1,   -5.6,   -5.1,   -4.5,   -4.0,   -3.6,   -3.4,   -3.4,   -3.3,   -1.5,   -0.7,   -0.9,   -0.8,   -0.9,   -1.0,   -0.6,   -0.5,   -2.0,   -3.1,   -3.5,   -3.6,   -3.6,   -3.4,   -3.1,   -2.7,   -2.9,   -2.7,   -2.8,   -2.5,   -2.6,   -3.3,   -3.7,  999.0
2011/09/07 06:10,  999.0,   -5.3,   -5.5,  999.0,  999.0,  999.0,  999.0,   -6.1,   -5.8,   -4.2,   -3.4,  999.0,   -2.2,   -1.8,  999.0,    0.8,    1.9,    2.1,    1.5,    2.0,  999.0,    2.9,    2.7,    3.3,    3.4,    3.6,    3.6,    3.3,  999.0,    2.7,    0.2,  999.0,   -0.7,   -1.8,  999.0,  999.0,   -1.2,   -3.2,   -5.1,   -5.5,  999.0,  999.0,  999.0,  999.0,   -0.1,   -0.1,   -0.4,   -1.2,   -2.2,   -4.1,   -5.8,   -7.0,   -8.3,   -9.9,  -10.9,  -10.9,  -10.6,  -10.5,  -10.1,   -9.9,   -9.1,   -8.5,   -7.7,   -7.2,   -6.7,   -5.8,   -5.3,   -5.1,   -4.8,   -4.2,   -3.3,   -2.6,   -2.0,   -1.3,   -0.4,    1.0,    1.0,    0.2,   -0.5,   -1.0,   -0.9,   -0.7,   -1.1,   -2.5,   -3.5,   -3.8,   -3.8,   -3.6,   -3.2,   -3.0,   -2.6,   -2.6,   -2.4,   -2.6,   -1.5,  999.0,  999.0,  999.0
2011/09/07 06:20,  999.0,   -5.2,   -5.5,   -5.6,  999.0,  999.0,  999.0,   -6.0,   -5.2,   -4.1,   -3.2,  999.0,   -2.1,   -2.0,   -1.0,   -0.0,    0.9,    1.2,    1.1,    1.4,    1.6,    2.2,    2.5,    2.8,    2.8,    3.1,    3.5,    3.4,    3.0,    3.3,    2.3,    1.1,    0.3,   -0.1,   -1.1,   -1.2,   -1.0,   -2.0,   -1.2,  999.0,  999.0,  999.0,  999.0,  999.0,    1.0,    0.3,   -0.9,   -2.9,   -4.8,   -7.6,   -9.3,   -9.7,  -10.1,  -10.7,  -10.6,  -10.7,  -10.3,   -9.6,   -9.1,   -8.8,   -8.7,   -8.6,   -8.1,   -7.4,   -6.6,   -5.9,   -5.7,   -5.4,   -5.3,   -4.7,   -3.9,   -2.9,   -1.7,   -0.2,    0.7,    1.5,    1.5,    0.8,   -0.4,   -1.0,   -1.3,   -1.2,   -0.5,   -0.7,   -1.7,   -2.8,   -2.9,   -2.9,   -2.7,   -2.3,   -2.1,   -1.9,   -2.3,   -1.7,  999.0,  999.0,  999.0,  999.0
2011/09/07 06:30,  999.0,  999.0,   -5.2,  999.0,  999.0,   -7.1,  999.0,   -6.4,   -5.6,   -4.8,   -4.2,   -3.4,   -2.0,   -1.8,   -1.5,  999.0,  999.0,    0.7,    0.7,    0.7,    1.1,    1.5,  999.0,    1.9,    1.7,    1.8,    1.9,    2.1,    2.2,    2.3,    2.7,    1.9,    0.5,   -0.1,   -1.0,   -1.5,   -1.6,   -0.4,    1.0,    1.3,  999.0,  999.0,  999.0,    2.9,    1.7,    0.5,   -0.6,   -2.6,   -4.5,   -7.0,   -8.6,   -8.8,   -8.6,   -8.3,   -8.5,   -8.7,   -9.0,   -9.2,   -9.0,   -8.5,   -8.4,   -7.8,   -7.4,   -6.6,   -4.7,   -3.7,   -3.0,   -2.5,   -2.6,   -2.3,   -2.1,   -1.9,   -1.6,   -1.0,   -0.2,    0.7,    1.2,    1.1,    0.5,   -0.2,   -0.4,   -0.6,   -0.7,   -0.6,   -1.0,   -1.9,   -3.0,   -3.2,   -2.8,   -2.8,   -2.4,   -2.3,   -2.4,   -2.1,   -2.0,   -2.0,   -2.4,  999.0
2011/09/07 06:40,  999.0,   -4.5,   -5.2,  999.0,  999.0,  999.0,   -7.6,   -6.7,   -5.6,   -5.2,   -4.6,   -3.8,  999.0,   -2.0,   -1.8,   -0.3,  999.0,    0.8,    1.0,    1.4,    1.5,    1.9,    2.4,    2.3,    2.0,    2.1,    2.3,    2.3,    2.4,    2.3,    3.2,    2.9,  999.0,  999.0,   -0.1,   -1.1,   -1.9,   -1.2,   -0.5,    0.9,  999.0,  999.0,  999.0,  999.0,  999.0,  999.0,  999.0,   -4.0,   -6.0,   -7.4,   -8.4,   -9.1,   -9.6,   -9.3,   -9.2,  -10.0,  -10.5,   -9.7,  -10.4,   -9.5,   -9.0,   -8.9,   -8.4,   -6.8,   -5.2,   -4.0,   -3.0,   -2.0,   -1.6,   -1.4,   -1.2,   -1.2,   -1.0,   -0.7,   -0.3,   -0.0,    0.3,    0.5,    0.3,   -0.2,   -0.3,   -0.3,   -0.3,    0.0,    0.0,   -0.6,   -1.3,   -1.9,   -2.1,   -2.0,   -1.9,   -1.6,   -1.5,   -1.3,   -1.2,   -1.2,  999.0,  999.0
2011/09/07 06:50,  999.0,  999.0,  999.0,  999.0,  999.0,  999.0,  999.0,  999.0,  999.0,  999.0,    5.1,  999.0,  999.0,  999.0,    3.9,    4.8,  999.0,  999.0,  999.0,  999.0,  999.0,  999.0,  999.0,  999.0,    1.8,    2.1,    2.0,  999.0,    1.6,  999.0,  999.0,    1.4,    0.5,  999.0,   -2.1,  999.0,  999.0,   -2.1,   -0.3,  999.0,  999.0,  999.0,  999.0,    3.4,    3.2,    1.3,    0.1,   -1.2,   -2.8,   -5.0,   -7.0,   -9.7,  -10.5,  -10.5,  -10.4,  -10.3,  -10.3,  -10.3,  -10.5,  -10.8,  -11.1,  -10.4,   -9.7,   -7.3,   -5.5,   -4.0,   -2.6,   -1.5,   -1.1,   -1.0,   -1.5,   -1.6,   -1.3,   -1.2,   -0.9,   -0.4,    0.3,    0.6,    0.3,    0.1,   -0.2,   -0.2,    0.1,    0.3,    0.2,   -0.4,   -1.0,   -2.0,   -2.3,   -2.2,   -2.1,   -1.9,   -1.7,   -1.7,   -1.8,   -1.9,   -2.1,  999.0
2011/09/07 07:00,  999.0,  999.0,   -5.1,   -5.9,   -6.9,  999.0,  999.0,   -8.0,   -6.7,   -5.3,   -4.2,   -4.4,   -3.7,   -3.4,   -2.9,   -1.3,   -0.5,  999.0,    1.4,    1.6,    1.6,    1.7,    2.3,    2.3,    1.8,    2.2,    1.9,    1.8,  999.0,  999.0,    3.1,  999.0,  999.0,   -0.4,   -1.8,   -2.8,   -3.0,   -2.4,   -1.6,  999.0,  999.0,  999.0,  999.0,  999.0,  999.0,  999.0,  999.0,  999.0,  999.0,  999.0,   -4.9,   -8.1,   -9.4,  -10.6,  -10.4,   -9.7,   -9.5,   -9.5,   -9.5,   -9.3,   -9.1,   -8.8,   -8.4,   -6.6,   -5.1,   -4.5,   -3.2,   -2.1,   -1.4,   -1.2,   -1.6,   -2.0,   -2.0,   -2.4,   -2.5,   -2.3,   -1.5,    0.1,    0.9,    1.3,    0.9,    0.6,    0.1,    0.0,   -0.2,   -0.9,   -1.7,   -2.6,   -3.1,   -2.9,   -2.6,   -2.3,   -2.8,   -2.6,   -2.5,   -2.6,   -2.5,  999.0
2011/09/07 07:10,  999.0,   -4.1,  999.0,   -6.2,   -7.1,  999.0,  999.0,   -7.7,   -7.2,   -6.1,   -4.3,   -4.6,   -4.4,   -4.3,   -4.5,   -2.8,   -1.5,   -1.3,   -0.7,    0.3,    1.2,  999.0,    1.6,    2.0,    2.5,    2.0,    1.7,    1.7,    1.8,    2.1,  999.0,    2.8,  999.0,    0.8,   -0.4,   -1.8,   -1.7,   -1.3,   -0.3,  999.0,  999.0,  999.0,  999.0,  999.0,  999.0,    2.8,  999.0,  999.0,    0.4,   -0.6,   -1.7,   -4.7,   -6.8,  999.0,   -8.2,   -7.5,   -7.4,   -8.1,   -8.6,   -8.5,   -8.5,   -8.6,   -9.2,  -10.3,   -8.7,   -7.4,   -5.8,   -3.8,   -2.6,   -1.8,   -2.1,   -2.8,   -3.4,   -3.8,   -3.5,   -3.1,   -2.7,   -1.8,   -0.3,    0.7,    1.2,    1.2,    0.6,    0.0,   -0.3,   -0.7,   -1.3,   -2.1,   -2.0,   -1.7,   -1.5,   -1.9,   -2.2,   -2.0,   -2.6,  999.0,  999.0,  999.0
2011/09/07 07:20,  999.0,   -4.1,   -4.8,   -5.8,  999.0,  999.0,  999.0,  999.0,   -5.7,   -4.8,   -4.2,   -4.1,   -3.7,   -4.0,   -2.5,  999.0,   -1.2,   -0.9,   -0.4,    0.1,    0.8,    1.7,    1.3,    1.5,    1.8,    1.3,    0.8,    0.7,    1.0,    1.5,    1.6,    2.1,    1.5,    0.6,   -1.0,   -1.9,   -2.0,   -1.8,   -1.3,   -0.3,  999.0,  999.0,  999.0,  999.0,  999.0,  999.0,  999.0,  999.0,  999.0,  999.0,   -0.5,   -2.1,   -4.0,   -5.4,   -6.3,   -6.3,   -5.7,   -5.1,   -4.7,   -4.7,   -5.2,   -5.4,   -5.7,   -5.5,   -5.5,   -4.5,   -4.0,   -3.7,   -4.0,   -4.4,   -4.8,   -5.1,   -4.9,   -5.1,   -5.1,   -4.4,   -3.5,   -2.3,   -1.4,    0.5,    1.6,  999.0,    1.5,    0.9,    0.2,   -0.4,   -1.0,   -1.4,   -1.7,   -1.2,   -1.1,   -1.7,   -2.0,  999.0,   -1.9,  999.0,  999.0,  999.0
2011/09/07 07:30,  999.0,   -3.8,   -4.4,  999.0,  999.0,   -5.9,  999.0,  999.0,   -5.0,   -4.1,   -2.8,   -2.1,   -3.3,   -2.3,   -1.8,   -1.5,   -1.3,   -0.9,   -0.5,   -0.4,    0.0,    1.0,    0.9,    0.9,    1.3,    1.0,    0.7,    1.2,    1.9,    1.9,    2.3,    2.6,    1.8,    0.7,   -1.5,   -1.4,   -1.4,   -1.4,   -0.8,  999.0,  999.0,  999.0,  999.0,  999.0,  999.0,  999.0,  999.0,  999.0,  999.0,  999.0,  999.0,   -3.9,   -4.3,   -5.0,   -5.7,   -6.2,   -5.6,   -4.6,   -3.5,   -2.9,   -3.2,   -3.6,   -4.0,   -3.9,   -4.1,   -3.5,   -3.4,   -3.7,   -4.1,   -4.2,   -4.3,   -4.8,   -4.9,   -5.4,   -5.7,   -5.8,   -5.2,   -3.9,   -2.7,   -1.7,   -0.7,    0.1,    0.3,   -0.8,   -1.2,   -1.6,   -1.9,   -1.8,   -1.9,   -1.4,   -1.7,  999.0,  999.0,  999.0,  999.0,  999.0,  999.0,  999.0
2011/09/07 07:40,  999.0,  999.0,   -6.3,   -6.4,   -7.3,  999.0,   -5.6,   -6.2,   -5.1,   -3.3,   -2.2,   -1.8,   -2.3,   -0.0,   -0.3,   -0.7,   -0.5,   -0.1,    0.1,    0.1,    0.7,    1.4,    1.8,    1.6,    1.6,    1.4,    1.4,    2.2,    2.4,    2.3,    2.3,    2.0,    1.6,   -0.1,   -0.9,   -1.1,   -1.2,  999.0,  999.0,  999.0,  999.0,  999.0,  999.0,  999.0,  999.0,  999.0,  999.0,  999.0,  999.0,   -2.7,   -2.8,   -4.2,   -5.1,   -5.8,   -5.8,   -5.4,   -4.7,   -3.6,   -2.6,   -2.2,   -2.2,   -2.6,   -2.9,   -3.3,   -3.8,   -3.9,   -3.5,   -3.3,   -3.4,   -3.5,   -3.9,   -4.1,   -4.6,   -5.2,   -5.9,   -6.5,   -5.2,   -4.8,   -3.2,   -2.5,  999.0,   -0.1,  999.0,  999.0,   -1.5,  999.0,   -2.5,  999.0,  999.0,  999.0,  999.0,  999.0,  999.0,  999.0,  999.0,  999.0,  999.0,  999.0
2011/09/07 07:50,  999.0,   -5.0,   -6.2,   -7.1,   -7.7,   -7.9,   -7.0,   -6.6,   -5.6,   -3.1,   -2.8,   -1.9,   -1.6,   -0.1,   -0.7,   -1.0,   -0.5,    0.2,    0.1,   -0.0,    0.5,    1.0,    1.7,    1.8,    1.9,    1.6,    1.9,    2.6,    2.9,    3.0,    2.1,    1.9,    1.3,   -0.2,   -1.0,   -1.1,   -0.9,  999.0,  999.0,  999.0,  999.0,  999.0,  999.0,   -1.2,   -1.5,   -1.1,   -1.4,   -1.7,   -1.5,   -2.1,   -3.3,   -5.2,   -6.8,   -7.1,   -6.0,   -5.3,   -6.0,   -5.8,   -4.5,   -3.8,   -3.6,   -3.4,   -3.1,   -3.2,   -3.1,   -3.0,   -2.1,   -1.0,   -1.1,   -1.1,   -1.8,   -2.7,   -3.4,   -4.3,   -4.9,   -5.3,   -5.3,   -4.7,   -3.8,   -2.9,   -1.7,   -1.7,  999.0,  999.0,  999.0,  999.0,  999.0,  999.0,  999.0,  999.0,  999.0,  999.0,  999.0,  999.0,  999.0,  999.0,  999.0,  999.0
2011/09/07 08:00,  999.0,   -5.8,  999.0,   -7.8,   -8.0,  999.0,  999.0,  999.0,  999.0,  999.0,   -2.3,   -2.3,   -0.4,   -0.3,   -0.9,  999.0,  999.0,  999.0,  999.0,   -0.2,    0.0,    1.1,    1.5,    1.8,    1.8,    1.2,    1.6,    2.4,    2.9,    2.7,    1.9,    1.1,    1.0,    0.7,   -0.2,  999.0,   -0.2,    0.6,  999.0,  999.0,  999.0,  999.0,  999.0,    2.9,    2.8,  999.0,    1.7,    1.1,    0.7,   -1.4,   -3.7,   -5.3,   -6.1,   -5.9,   -5.2,   -5.4,   -5.8,   -6.1,   -5.4,   -4.6,   -3.6,   -3.2,   -2.8,   -2.8,   -2.7,   -2.2,   -1.1,   -0.3,   -0.2,   -0.4,   -0.8,   -1.7,   -3.1,   -3.9,   -4.6,   -5.2,   -5.4,   -4.7,  999.0,  999.0,  999.0,  999.0,  999.0,  999.0,  999.0,  999.0,  999.0,  999.0,  999.0,  999.0,  999.0,  999.0,  999.0,  999.0,  999.0,  999.0,  999.0,  999.0
2011/09/07 08:10,  999.0,   -6.7,   -7.5,   -8.1,  999.0,  999.0,  999.0,  999.0,   -6.5,   -4.8,   -3.0,   -1.8,   -1.9,   -0.7,   -0.7,   -0.6,   -0.6,   -0.4,   -0.5,   -0.2,    0.1,  999.0,    1.8,    1.9,    2.3,    1.8,    2.0,    2.4,    3.1,    3.2,    3.2,    1.7,    0.7,    0.4,   -0.3,   -0.1,  999.0,   -0.7,  999.0,  999.0,  999.0,  999.0,  999.0,    4.4,    2.9,    2.2,    2.0,    1.8,   -0.0,  999.0,  999.0,  999.0,  999.0,  999.0,  999.0,   -6.2,   -6.2,   -5.0,   -4.5,   -3.3,   -2.7,   -2.7,   -3.3,   -3.9,   -3.8,   -2.3,   -1.9,   -1.5,   -1.2,   -0.7,   -0.8,   -0.9,   -1.4,   -2.5,   -3.2,  999.0,  999.0,  999.0,  999.0,  999.0,  999.0,  999.0,  999.0,  999.0,  999.0,  999.0,  999.0,  999.0,  999.0,  999.0,  999.0,  999.0,  999.0,  999.0,  999.0,  999.0,  999.0,  999.0
2011/09/07 08:20,   -5.4,   -7.3,   -7.3,   -8.2,   -7.8,   -8.4,  999.0,  999.0,  999.0,   -4.2,   -2.0,   -1.2,   -2.2,   -1.6,   -0.4,   -0.4,   -0.1,    0.1,   -0.2,   -0.3,   -0.5,    0.2,  999.0,    1.8,    1.7,    1.5,    1.6,    3.0,    3.7,    3.3,    3.3,    3.0,    1.5,    0.9,    0.3,    0.7,   -0.4,   -0.3,   -0.5,  999.0,    1.9,  999.0,  999.0,    2.9,    2.5,    1.9,    0.9,   -0.5,  999.0,  999.0,  999.0,  999.0,  999.0,  999.0,  999.0,  999.0,  999.0,  999.0,  999.0,  999.0,  999.0,   -1.8,   -3.3,   -4.3,   -4.1,   -3.3,   -3.1,   -3.4,   -3.4,   -2.7,   -1.8,   -1.2,   -1.0,  999.0,  999.0,  999.0,  999.0,  999.0,  999.0,  999.0,  999.0,  999.0,  999.0,  999.0,  999.0,  999.0,  999.0,  999.0,  999.0,  999.0,   -2.2,   -1.7,  999.0,  999.0,  999.0,  999.0,  999.0,  999.0
2011/09/07 08:30,  999.0,   -4.4,   -3.6,   -5.7,   -6.2,   -4.4,  999.0,  999.0,  999.0,  999.0,   -1.9,   -1.4,   -1.4,   -0.6,   -0.2,    0.0,    0.7,    0.8,    0.8,    0.5,    0.1,    0.3,    0.7,  999.0,    1.8,    1.8,    2.3,    2.9,    3.5,  999.0,    3.6,    3.4,    1.9,    0.9,    0.5,    0.6,    0.1,   -0.9,   -0.5,    0.3,  999.0,  999.0,  999.0,    2.8,    2.7,    1.9,  999.0,  999.0,  999.0,  999.0,  999.0,  999.0,  999.0,  999.0,  999.0,  999.0,  999.0,  999.0,  999.0,  999.0,  999.0,  999.0,  999.0,   -4.8,   -4.9,   -4.7,   -4.1,   -4.5,   -4.7,   -4.5,   -3.9,   -3.3,   -2.4,  999.0,  999.0,  999.0,  999.0,  999.0,  999.0,  999.0,  999.0,  999.0,  999.0,  999.0,  999.0,  999.0,  999.0,  999.0,   -3.5,  999.0,  999.0,   -1.1,  999.0,  999.0,  999.0,  999.0,  999.0,  999.0
2011/09/07 08:40,  999.0,  999.0,   -6.7,   -7.6,  999.0,   -6.0,   -6.6,  999.0,  999.0,  999.0,   -1.1,   -0.5,   -0.7,   -0.9,   -0.1,    0.6,    1.0,    1.0,    0.7,    0.3,    0.3,    0.1,    0.8,  999.0,    2.1,    2.0,    2.4,    3.3,  999.0,    3.2,    2.9,    3.5,    1.5,    0.6,  999.0,    0.1,   -0.3,  999.0,   -1.8,   -0.7,    0.1,  999.0,  999.0,  999.0,  999.0,  999.0,  999.0,  999.0,  999.0,  999.0,  999.0,  999.0,  999.0,  999.0,  999.0,  999.0,  999.0,  999.0,  999.0,  999.0,  999.0,  999.0,  999.0,  999.0,  999.0,  999.0,  999.0,  999.0,  999.0,  999.0,  999.0,  999.0,  999.0,   -2.0,   -2.2,   -2.3,   -3.1,   -3.7,   -4.2,   -4.6,   -5.2,   -6.0,   -6.4,   -6.4,  999.0,  999.0,   -5.2,  999.0,  999.0,  999.0,  999.0,  999.0,  999.0,  999.0,  999.0,  999.0,  999.0,  999.0
2011/09/07 08:50,   -5.5,   -7.0,   -7.9,   -8.6,   -6.9,   -6.6,   -7.5,  999.0,  999.0,  999.0,   -0.5,   -0.8,   -0.5,   -0.6,   -0.2,    0.4,    1.1,    1.0,    0.9,    0.5,    0.4,  999.0,    1.0,    1.9,    2.1,    1.8,    2.1,    2.7,    3.6,    3.7,    3.1,    3.6,  999.0,    1.1,    0.4,    0.4,    0.2,   -0.5,   -1.6,   -0.7,    0.1,  999.0,  999.0,  999.0,  999.0,  999.0,  999.0,  999.0,  999.0,   -4.0,  999.0,  999.0,  999.0,  999.0,  999.0,  999.0,  999.0,  999.0,  999.0,  999.0,  999.0,  999.0,  999.0,  999.0,  999.0,  999.0,  999.0,  999.0,  999.0,  999.0,   -4.5,  999.0,   -5.2,   -4.1,   -3.5,   -2.9,   -3.4,   -4.3,   -4.8,   -5.2,   -6.3,   -7.1,   -8.2,  999.0,  999.0,  999.0,  999.0,  999.0,  999.0,  999.0,  999.0,  999.0,  999.0,  999.0,  999.0,  999.0,  999.0,  999.0
2011/09/07 09:00,   -5.6,   -6.6,   -7.5,   -7.3,   -6.6,   -6.1,   -7.1,   -6.9,  999.0,  999.0,   -1.2,   -1.1,   -1.3,   -0.3,   -0.7,  999.0,    0.1,    0.3,    0.4,    0.1,    0.1,    0.1,    1.4,    1.7,    2.0,    1.9,    1.9,    2.2,    3.3,    3.6,    2.9,  999.0,  999.0,    0.2,   -0.0,   -0.2,   -0.0,   -0.6,   -1.4,   -1.8,   -1.0,  999.0,  999.0,  999.0,  999.0,  999.0,  999.0,  999.0,  999.0,   -3.6,   -5.1,   -6.2,  999.0,  999.0,  999.0,  999.0,  999.0,  999.0,  999.0,  999.0,  999.0,  999.0,  999.0,  999.0,  999.0,  999.0,  999.0,    0.5,   -0.6,   -2.1,   -3.4,   -3.5,   -2.9,   -2.7,   -2.3,   -2.7,   -4.9,   -6.0,   -6.3,   -6.6,   -7.5,   -8.6,   -9.7,  999.0,  999.0,  999.0,  999.0,  999.0,  999.0,  999.0,  999.0,  999.0,  999.0,  999.0,  999.0,  999.0,  999.0,  999.0
2011/09/07 09:10,   -5.4,  999.0,  999.0,   -6.6,   -6.2,   -5.9,  999.0,  999.0,  999.0,  999.0,   -2.1,   -1.0,   -1.1,   -0.4,   -0.4,  999.0,    0.2,    0.5,    0.5,    0.5,   -0.2,   -0.4,    0.5,    1.5,    1.9,    1.7,    1.6,    2.1,    3.5,    3.9,    3.2,    3.7,  999.0,    0.9,    0.5,  999.0,  999.0,    0.2,   -0.4,   -1.0,   -0.9,    0.3,  999.0,  999.0,  999.0,  999.0,  999.0,  999.0,  999.0,   -4.7,   -6.1,  999.0,  999.0,  999.0,  999.0,  999.0,  999.0,  999.0,  999.0,  999.0,  999.0,  999.0,  999.0,  999.0,  999.0,  999.0,  999.0,  999.0,   -0.7,  999.0,  999.0,  999.0,   -4.5,   -4.0,   -4.1,   -4.9,   -6.9,   -8.2,   -9.1,   -9.7,  -10.1,  -10.8,  -11.4,  -12.1,  -12.0,  -11.5,  999.0,  999.0,  999.0,  999.0,  999.0,  999.0,  999.0,  999.0,  999.0,  999.0,  999.0,  999.0
2011/09/07 09:20,  999.0,  999.0,   -7.5,   -7.0,   -6.3,   -6.2,  999.0,  999.0,  999.0,   -0.7,   -0.8,   -0.7,   -0.4,   -0.2,   -0.1,   -0.2,    0.4,    0.3,    0.3,    0.3,   -0.1,   -0.2,    1.5,    1.9,    2.0,    1.7,    1.4,    1.6,    2.6,    3.1,    2.9,    2.7,    3.4,    1.0,    0.1,   -0.1,  999.0,    0.2,   -0.3,   -1.0,   -1.0,    0.4,  999.0,  999.0,  999.0,  999.0,  999.0,  999.0,  999.0,  999.0,  999.0,  999.0,  999.0,  999.0,  999.0,   -3.0,  999.0,  999.0,  999.0,  999.0,  999.0,  999.0,  999.0,  999.0,  999.0,  999.0,  999.0,    1.7,    0.7,    0.5,   -0.7,   -1.5,   -1.3,   -1.6,   -2.1,   -4.1,   -6.0,   -7.7,   -9.3,  -10.3,  -10.8,  -11.2,  -11.3,  -10.8,  -10.5,   -9.7,   -9.0,   -7.7,   -6.8,  999.0,  999.0,  999.0,  999.0,  999.0,  999.0,  999.0,  999.0,  999.0
2011/09/07 09:30,   -4.5,   -7.6,   -7.3,   -6.2,   -5.9,   -6.4,  999.0,  999.0,   -4.4,   -1.2,   -1.3,   -0.4,   -0.2,   -0.0,    0.0,   -0.1,    0.7,    0.6,    0.3,   -0.1,    0.1,    1.4,    2.0,    2.1,    2.2,    1.9,    1.6,    1.3,    2.0,    2.3,    2.3,    2.1,    2.6,    0.9,   -0.7,  999.0,   -0.1,   -0.4,   -0.7,   -1.4,   -1.0,  999.0,  999.0,  999.0,  999.0,  999.0,  999.0,  999.0,  999.0,  999.0,  999.0,  999.0,  999.0,  999.0,  999.0,  999.0,  999.0,  999.0,  999.0,  999.0,  999.0,    2.8,    2.9,    3.0,    2.9,    2.6,    2.2,    2.0,    1.7,    0.9,   -0.3,   -1.1,   -1.6,   -2.4,   -3.8,   -5.4,   -7.2,   -8.6,   -9.7,  -10.4,  -11.5,  -11.9,  -11.9,  -11.7,  -10.7,   -9.6,   -8.8,  999.0,  999.0,  999.0,  999.0,  999.0,  999.0,  999.0,  999.0,  999.0,  999.0,  999.0
2011/09/07 09:40,  999.0,   -7.1,   -6.9,   -5.6,   -5.7,   -5.4,  999.0,   -4.8,   -3.8,   -0.5,   -0.3,   -0.3,   -0.2,   -0.1,   -0.2,  999.0,    0.6,    0.7,    0.7,    0.1,    0.7,    1.6,    2.0,    2.3,    2.4,    1.9,    1.2,    1.1,    1.8,    2.0,    2.0,    1.8,    2.2,  999.0,  999.0,   -0.6,  999.0,  999.0,   -0.4,   -0.9,   -0.8,    0.4,    1.8,  999.0,  999.0,  999.0,  999.0,  999.0,  999.0,  999.0,  999.0,  999.0,  999.0,  999.0,  999.0,  999.0,  999.0,  999.0,  999.0,  999.0,  999.0,  999.0,    1.7,    1.9,    2.1,    2.4,    2.3,    1.9,    1.4,   -0.1,   -1.6,   -2.9,   -3.8,   -5.5,   -6.8,   -8.3,   -9.5,  -10.5,  -11.2,  -11.6,  -12.0,  -12.4,  -12.4,  -12.1,  -11.4,  -10.6,  999.0,  999.0,  999.0,  999.0,  999.0,  999.0,  999.0,  999.0,  999.0,  999.0,  999.0,  999.0
2011/09/07 09:50,  999.0,  999.0,  999.0,   -2.2,   -2.5,  999.0,  999.0,   -4.8,   -3.7,   -0.2,    0.2,    0.6,    0.2,    0.4,    0.5,    0.3,    0.5,    0.8,    0.6,    0.3,    0.6,    1.5,    1.8,    2.0,    1.9,    1.4,    0.9,    1.1,    1.7,    1.5,    1.5,    1.7,    1.9,  999.0,   -0.8,  999.0,  999.0,   -0.6,   -0.6,   -1.3,   -0.8,    0.4,    1.5,  999.0,  999.0,  999.0,  999.0,  999.0,  999.0,  999.0,  999.0,  999.0,  999.0,  999.0,  999.0,  999.0,  999.0,  999.0,  999.0,  999.0,  999.0,  999.0,    0.8,    2.1,    2.0,    2.2,    2.1,    1.9,    1.1,   -0.6,   -2.4,   -3.9,   -5.6,   -7.5,   -9.0,  -10.1,  -10.7,  -10.8,  -11.0,  -11.4,  -11.8,  -12.3,  -12.8,  -12.9,  -11.6,   -9.7,   -8.6,  999.0,  999.0,  999.0,  999.0,  999.0,  999.0,  999.0,  999.0,  999.0,  999.0,  999.0
2011/09/07 10:00,  999.0,  999.0,   -4.9,   -4.2,   -5.3,  999.0,   -5.4,   -3.9,   -2.1,   -0.5,    0.2,    0.6,    0.2,    0.3,    0.6,    0.5,    0.7,    0.8,    0.9,  999.0,  999.0,    1.6,    1.9,    1.9,    1.6,    1.1,    1.2,    2.0,    1.3,    1.1,    1.1,  999.0,  999.0,  999.0,   -0.7,  999.0,  999.0,  999.0,   -1.5,  999.0,   -0.7,  999.0,  999.0,  999.0,  999.0,  999.0,  999.0,  999.0,  999.0,  999.0,  999.0,  999.0,  999.0,  999.0,  999.0,  999.0,  999.0,  999.0,  999.0,  999.0,    1.8,    2.4,    2.2,    3.0,    3.1,    2.9,    2.4,    1.5,   -0.8,   -2.8,   -4.9,   -5.9,   -7.2,   -8.0,   -8.8,   -9.5,  -10.1,  -10.6,  -10.9,  -10.9,  -10.9,  -10.6,  -10.6,  -10.4,  -10.1,   -8.8,  999.0,  999.0,  999.0,  999.0,  999.0,  999.0,  999.0,  999.0,  999.0,  999.0,  999.0,  999.0
2011/09/07 10:10,  999.0,   -5.8,  999.0,   -5.7,   -5.6,   -5.7,   -5.5,   -4.5,   -2.9,   -0.5,    0.2,    0.7,    0.6,    0.3,    0.6,    0.5,    1.1,    1.0,  999.0,  999.0,    1.3,    1.6,    2.0,    2.1,    2.1,    1.6,    1.9,    2.6,    2.2,    1.8,    1.2,    1.4,    0.9,  999.0,  999.0,  999.0,  999.0,  999.0,  999.0,  999.0,   -0.4,  999.0,  999.0,  999.0,  999.0,  999.0,  999.0,  999.0,  999.0,  999.0,  999.0,  999.0,  999.0,  999.0,  999.0,  999.0,  999.0,  999.0,  999.0,    0.9,    1.7,    2.0,    2.5,    2.9,    2.9,    2.9,    1.4,   -0.1,   -2.3,   -4.2,   -5.6,   -6.4,   -7.1,   -7.6,   -8.3,   -9.3,  -10.5,  -11.7,  -12.4,  -12.7,  -12.1,  -10.3,   -9.3,  999.0,  999.0,  999.0,  999.0,  999.0,  999.0,  999.0,  999.0,  999.0,  999.0,  999.0,  999.0,  999.0,  999.0,  999.0
2011/09/07 10:20,  999.0,   -4.9,  999.0,   -4.0,   -5.7,   -4.9,   -3.0,  999.0,   -3.4,   -0.7,    0.1,    0.6,    1.0,    0.4,    0.7,    0.8,    1.1,    1.4,    1.2,  999.0,    1.3,    2.1,  999.0,    2.5,  999.0,    2.4,    2.6,    3.2,    3.0,    2.2,    1.7,    1.9,  999.0,  999.0,  999.0,  999.0,  999.0,  999.0,  999.0,  999.0,  999.0,  999.0,  999.0,  999.0,  999.0,  999.0,  999.0,  999.0,  999.0,  999.0,  999.0,  999.0,  999.0,  999.0,  999.0,  999.0,  999.0,  999.0,  999.0,    1.6,    2.0,    2.4,    2.9,    2.9,    2.7,    2.3,    1.0,   -1.0,   -2.6,   -4.1,   -5.1,   -5.6,   -5.9,   -6.2,   -7.3,   -8.5,   -9.4,  -10.5,  -11.3,  -12.0,  999.0,  999.0,  999.0,  999.0,  999.0,  999.0,  999.0,  999.0,  999.0,  999.0,  999.0,  999.0,  999.0,  999.0,  999.0,  999.0,  999.0,  999.0
2011/09/07 10:30,  999.0,   -5.7,   -5.7,  999.0,   -5.5,   -5.6,  999.0,   -4.9,   -4.0,   -1.3,   -0.3,    0.2,    0.6,    0.6,    0.4,    0.7,    0.8,    0.9,    1.2,    0.7,    1.1,    1.8,    2.3,    2.5,  999.0,    2.5,    2.7,    3.2,    2.7,    2.4,    2.1,    2.5,    1.6,    0.9,    1.2,  999.0,    1.2,  999.0,   -0.5,  999.0,  999.0,  999.0,  999.0,  999.0,  999.0,  999.0,  999.0,  999.0,  999.0,  999.0,  999.0,  999.0,  999.0,  999.0,  999.0,  999.0,  999.0,  999.0,  999.0,  999.0,    1.8,    2.3,    2.9,    3.2,    2.9,    2.1,    0.6,   -1.1,   -2.4,   -3.9,   -5.0,   -5.2,   -5.7,   -6.7,   -8.1,  -10.0,  -11.0,  -11.3,  999.0,  999.0,  999.0,  999.0,  999.0,  999.0,  999.0,  999.0,  999.0,  999.0,  999.0,  999.0,  999.0,  999.0,  999.0,  999.0,  999.0,  999.0,  999.0,  999.0
2011/09/07 10:40,  999.0,   -5.3,   -5.7,  999.0,   -5.2,   -6.5,  999.0,   -4.4,   -3.8,   -1.6,   -0.7,    0.3,    0.5,    0.6,    0.4,    0.6,    0.6,    0.9,    0.7,  999.0,    0.8,    1.6,  999.0,  999.0,    2.2,    2.3,    2.7,  999.0,    2.8,    2.5,    2.2,    2.9,    2.0,    1.1,    1.2,    2.3,    2.4,  999.0,  999.0,  999.0,  999.0,  999.0,  999.0,  999.0,  999.0,  999.0,  999.0,  999.0,  999.0,  999.0,  999.0,  999.0,  999.0,  999.0,  999.0,  999.0,  999.0,  999.0,  999.0,  999.0,    2.4,    3.2,    3.3,    3.1,    2.5,    0.5,   -0.7,   -2.3,   -3.9,   -5.1,   -6.0,   -6.9,   -7.7,   -8.8,   -9.8,  -10.8,  -11.4,  -11.6,  999.0,  999.0,  999.0,  999.0,  999.0,  999.0,  999.0,  999.0,  999.0,  999.0,  999.0,  999.0,  999.0,  999.0,  999.0,  999.0,  999.0,  999.0,  999.0,  999.0
2011/09/07 10:50,  999.0,   -5.5,   -6.0,   -6.3,   -6.2,   -6.8,   -6.2,   -4.6,   -3.9,   -3.2,   -1.9,  999.0,    0.4,    0.7,    0.3,    0.6,    0.4,    0.7,  999.0,  999.0,    0.5,    1.3,  999.0,  999.0,    1.8,    2.4,    3.2,  999.0,    3.3,    2.8,    2.4,    2.9,    3.4,    1.7,    1.3,    1.8,    2.3,  999.0,  999.0,  999.0,  999.0,  999.0,  999.0,  999.0,  999.0,  999.0,  999.0,  999.0,  999.0,  999.0,  999.0,  999.0,  999.0,  999.0,  999.0,  999.0,  999.0,  999.0,  999.0,  999.0,  999.0,    3.4,    3.7,    3.6,    3.0,    1.5,   -0.3,   -2.1,   -3.5,   -4.5,   -5.6,   -6.7,   -7.7,   -8.2,   -8.7,  -10.5,  -11.9,  999.0,  999.0,  999.0,  999.0,  999.0,  999.0,  999.0,  999.0,  999.0,  999.0,  999.0,  999.0,  999.0,  999.0,  999.0,  999.0,  999.0,  999.0,  999.0,  999.0,  999.0
2011/09/07 11:00,  999.0,   -5.7,   -7.1,  999.0,  999.0,   -6.2,  999.0,   -4.5,   -4.3,  999.0,   -1.0,   -0.2,    0.4,    0.8,    0.5,    0.6,    1.0,    1.1,  999.0,  999.0,    0.7,  999.0,    1.3,  999.0,    1.8,    2.4,  999.0,  999.0,    3.4,    3.2,    2.5,    2.7,    2.7,    1.3,    0.5,    1.2,    2.0,  999.0,  999.0,  999.0,  999.0,  999.0,  999.0,  999.0,  999.0,  999.0,  999.0,  999.0,  999.0,  999.0,  999.0,  999.0,  999.0,  999.0,  999.0,  999.0,  999.0,  999.0,  999.0,  999.0,  999.0,  999.0,  999.0,    2.9,    3.2,    2.3,    0.6,   -1.4,   -2.9,   -4.1,   -5.0,   -6.0,   -7.0,   -7.6,   -7.2,  999.0,  999.0,  999.0,  999.0,  999.0,  999.0,  999.0,  999.0,  999.0,  999.0,  999.0,  999.0,  999.0,  999.0,  999.0,  999.0,  999.0,  999.0,  999.0,  999.0,  999.0,  999.0,  999.0
2011/09/07 11:10,  999.0,   -3.1,   -5.8,  999.0,   -6.6,   -6.0,   -5.5,   -5.1,   -4.7,   -3.7,   -1.4,   -0.6,    0.2,    0.8,    0.9,    0.9,    1.2,    1.3,  999.0,    0.4,    1.0,    1.4,  999.0,    1.9,  999.0,  999.0,  999.0,  999.0,  999.0,    3.2,    2.5,    2.0,    2.3,  999.0,    0.6,    0.9,    2.0,  999.0,  999.0,    1.3,  999.0,  999.0,  999.0,  999.0,  999.0,  999.0,  999.0,  999.0,  999.0,  999.0,  999.0,  999.0,  999.0,  999.0,  999.0,  999.0,  999.0,  999.0,  999.0,  999.0,  999.0,  999.0,  999.0,    2.0,    2.0,    0.8,   -0.6,   -2.3,   -3.9,   -4.9,   -6.0,   -7.1,   -7.7,   -7.8,   -7.8,   -8.4,   -9.5,  -11.0,  999.0,  999.0,  999.0,  999.0,  999.0,  999.0,  999.0,  999.0,  999.0,  999.0,  999.0,  999.0,  999.0,  999.0,  999.0,  999.0,  999.0,  999.0,  999.0,  999.0
2011/09/07 11:20,  999.0,   -4.7,   -5.7,   -7.2,  999.0,   -6.2,   -5.8,  999.0,   -5.1,   -3.7,   -2.0,   -0.6,   -0.6,    0.7,    0.7,    0.8,    0.8,  999.0,  999.0,  999.0,  999.0,    1.0,  999.0,  999.0,  999.0,  999.0,  999.0,  999.0,  999.0,  999.0,  999.0,  999.0,    2.8,  999.0,  999.0,    1.6,    2.5,  999.0,  999.0,  999.0,  999.0,  999.0,  999.0,  999.0,  999.0,  999.0,  999.0,  999.0,  999.0,  999.0,  999.0,  999.0,  999.0,  999.0,  999.0,  999.0,  999.0,  999.0,  999.0,  999.0,  999.0,  999.0,  999.0,  999.0,    1.6,    0.7,  999.0,   -2.1,   -3.4,   -5.0,   -6.6,   -7.7,   -8.0,   -8.0,   -9.0,  -10.4,  -12.4,  999.0,  999.0,  999.0,  999.0,  999.0,  999.0,  999.0,  999.0,  999.0,  999.0,  999.0,  999.0,  999.0,  999.0,  999.0,  999.0,  999.0,  999.0,  999.0,  999.0,  999.0
2011/09/07 11:30,  999.0,   -3.3,   -5.3,   -6.7,   -6.2,   -6.0,   -5.5,   -5.4,   -4.6,  999.0,   -1.2,   -0.2,   -0.4,    0.6,  999.0,    0.5,    0.7,    0.5,    0.3,    0.1,    0.6,    1.2,  999.0,  999.0,  999.0,  999.0,  999.0,  999.0,  999.0,  999.0,  999.0,  999.0,  999.0,  999.0,  999.0,    1.5,    2.2,  999.0,  999.0,  999.0,  999.0,  999.0,  999.0,  999.0,  999.0,  999.0,  999.0,  999.0,  999.0,  999.0,  999.0,  999.0,  999.0,  999.0,  999.0,  999.0,  999.0,  999.0,  999.0,  999.0,  999.0,  999.0,  999.0,  999.0,    1.3,    1.1,   -0.1,   -1.7,   -2.9,   -4.9,   -6.5,   -7.5,   -8.4,   -9.6,  -10.8,  -12.1,  -12.7,  -13.4,  -13.5,  -13.3,  -13.2,  -12.5,  -11.1,  999.0,  999.0,  999.0,  999.0,  999.0,  999.0,  999.0,  999.0,  999.0,  999.0,  999.0,  999.0,  999.0,  999.0,  999.0
2011/09/07 11:40,  999.0,   -4.3,   -4.2,   -6.7,   -6.2,   -6.0,   -5.5,   -4.8,   -4.5,   -1.7,   -2.4,   -1.6,   -1.4,   -0.1,    0.5,    0.4,    0.4,    0.8,  999.0,    0.3,    0.4,    0.9,    1.2,  999.0,    1.9,    1.8,  999.0,  999.0,  999.0,  999.0,    3.9,    2.7,  999.0,  999.0,  999.0,    1.3,    2.1,  999.0,  999.0,  999.0,  999.0,  999.0,  999.0,  999.0,  999.0,  999.0,  999.0,  999.0,  999.0,  999.0,  999.0,  999.0,  999.0,  999.0,  999.0,  999.0,  999.0,  999.0,  999.0,  999.0,  999.0,  999.0,    0.6,    1.2,    1.9,    2.2,    1.4,   -0.1,   -2.0,   -3.1,   -6.0,   -7.9,   -9.5,  -11.1,  -12.2,  -13.0,  -13.7,  -13.6,  -13.1,  999.0,  999.0,  999.0,  999.0,  999.0,  999.0,  999.0,  999.0,  999.0,  999.0,  999.0,  999.0,  999.0,  999.0,  999.0,  999.0,  999.0,  999.0,  999.0
2011/09/07 11:50,  999.0,   -3.1,   -4.4,   -6.4,   -5.5,   -6.1,   -5.4,   -4.9,   -4.3,   -3.2,   -3.3,   -3.2,  999.0,   -1.4,   -0.1,    0.3,    0.1,  999.0,  999.0,  999.0,    0.5,    0.6,  999.0,  999.0,  999.0,  999.0,  999.0,  999.0,  999.0,  999.0,    3.0,  999.0,  999.0,  999.0,  999.0,    1.4,    1.6,  999.0,  999.0,  999.0,  999.0,  999.0,  999.0,  999.0,  999.0,  999.0,  999.0,  999.0,  999.0,  999.0,  999.0,  999.0,  999.0,  999.0,  999.0,  999.0,  999.0,  999.0,  999.0,  999.0,  999.0,    1.6,    1.8,    2.7,    3.3,    2.8,  999.0,  999.0,  999.0,  999.0,  999.0,  999.0,  999.0,  999.0,  999.0,  999.0,  999.0,  999.0,  999.0,  999.0,  999.0,  999.0,  999.0,  999.0,  999.0,  999.0,  999.0,  999.0,  999.0,  999.0,  999.0,  999.0,  999.0,  999.0,  999.0,  999.0,  999.0,  999.0
2011/09/07 12:00,  999.0,  999.0,   -3.8,   -4.7,   -5.6,   -5.3,   -4.9,   -4.5,   -3.4,   -2.4,   -3.2,   -3.6,   -3.3,   -1.8,   -0.1,    0.7,    0.7,    1.3,    1.1,    0.9,    0.9,    1.3,  999.0,  999.0,  999.0,  999.0,  999.0,  999.0,  999.0,  999.0,    3.1,  999.0,  999.0,  999.0,  999.0,    0.7,    1.1,  999.0,  999.0,  999.0,  999.0,  999.0,  999.0,  999.0,  999.0,  999.0,  999.0,  999.0,  999.0,  999.0,  999.0,  999.0,  999.0,  999.0,  999.0,  999.0,  999.0,  999.0,  999.0,  999.0,  999.0,  999.0,  999.0,  999.0,  999.0,  999.0,  999.0,  999.0,  999.0,  999.0,  999.0,  999.0,  999.0,  999.0,  999.0,  999.0,  999.0,  999.0,  999.0,  999.0,  999.0,  999.0,  999.0,  999.0,  999.0,  999.0,  999.0,  999.0,  999.0,  999.0,  999.0,  999.0,  999.0,  999.0,  999.0,  999.0,  999.0,  999.0
2011/09/07 12:10,  999.0,  999.0,   -3.4,   -5.2,   -6.4,   -5.4,   -4.3,   -4.6,   -3.5,   -3.3,   -2.0,   -2.5,   -2.4,   -2.0,   -0.3,    1.3,    1.4,    1.5,    1.5,    1.3,    1.3,    1.6,  999.0,  999.0,  999.0,  999.0,  999.0,  999.0,  999.0,    2.8,    3.2,  999.0,  999.0,  999.0,  999.0,    0.2,    0.8,  999.0,  999.0,  999.0,  999.0,  999.0,  999.0,  999.0,  999.0,  999.0,  999.0,  999.0,  999.0,  999.0,  999.0,  999.0,  999.0,  999.0,  999.0,  999.0,  999.0,  999.0,  999.0,  999.0,  999.0,  999.0,  999.0,  999.0,  999.0,  999.0,  999.0,  999.0,  999.0,  999.0,  999.0,  999.0,  999.0,  999.0,  999.0,  999.0,  999.0,  999.0,  999.0,  999.0,  999.0,  999.0,  999.0,  999.0,  999.0,  999.0,  999.0,  999.0,  999.0,  999.0,  999.0,  999.0,  999.0,  999.0,  999.0,  999.0,  999.0,  999.0
2011/09/07 12:20,  999.0,  999.0,   -4.9,   -4.5,   -3.7,   -4.6,   -4.2,  999.0,   -3.7,   -2.2,   -1.8,   -1.7,   -2.5,   -2.0,   -0.7,    0.3,    1.0,    1.9,    1.6,    1.2,    1.7,    2.4,  999.0,  999.0,  999.0,  999.0,  999.0,  999.0,  999.0,    1.9,    0.8,  999.0,  999.0,  999.0,  999.0,   -0.0,  999.0,  999.0,  999.0,  999.0,  999.0,  999.0,  999.0,  999.0,  999.0,  999.0,  999.0,  999.0,  999.0,  999.0,  999.0,  999.0,  999.0,  999.0,  999.0,  999.0,  999.0,  999.0,  999.0,  999.0,  999.0,  999.0,  999.0,  999.0,  999.0,  999.0,  999.0,  999.0,  999.0,  999.0,  999.0,  999.0,  999.0,  999.0,  999.0,  999.0,  999.0,  999.0,  999.0,  999.0,  999.0,  999.0,  999.0,  999.0,  999.0,  999.0,  999.0,  999.0,  999.0,  999.0,  999.0,  999.0,  999.0,  999.0,  999.0,  999.0,  999.0,  999.0
2011/09/07 12:30,  999.0,  999.0,  999.0,   -3.9,   -4.1,   -3.8,   -3.1,   -3.4,   -3.2,   -2.4,   -1.6,   -2.0,   -1.7,   -1.0,   -0.3,    0.8,    1.3,    1.6,    1.4,    0.9,    1.3,  999.0,  999.0,  999.0,  999.0,  999.0,  999.0,  999.0,  999.0,    2.5,  999.0,  999.0,  999.0,  999.0,  999.0,    0.8,  999.0,  999.0,  999.0,  999.0,  999.0,  999.0,  999.0,  999.0,  999.0,  999.0,  999.0,  999.0,  999.0,  999.0,  999.0,  999.0,  999.0,  999.0,  999.0,  999.0,  999.0,  999.0,  999.0,  999.0,  999.0,  999.0,  999.0,  999.0,  999.0,  999.0,  999.0,  999.0,  999.0,  999.0,  999.0,  999.0,  999.0,  999.0,  999.0,  999.0,  999.0,  999.0,  999.0,  999.0,  999.0,  999.0,  999.0,  999.0,  999.0,  999.0,  999.0,  999.0,  999.0,  999.0,  999.0,  999.0,  999.0,  999.0,  999.0,  999.0,  999.0,  999.0
2011/09/07 12:40,  999.0,  999.0,   -3.2,   -4.1,   -4.7,   -5.1,   -4.1,   -3.7,   -3.4,   -2.7,   -2.0,   -1.6,   -1.2,   -0.7,    0.1,    1.0,    1.5,    1.5,    0.8,    0.9,    1.1,  999.0,  999.0,  999.0,  999.0,  999.0,  999.0,  999.0,  999.0,  999.0,    2.1,  999.0,  999.0,  999.0,  999.0,   -0.0,  999.0,  999.0,    0.4,  999.0,  999.0,  999.0,  999.0,  999.0,  999.0,  999.0,  999.0,  999.0,  999.0,  999.0,  999.0,  999.0,  999.0,  999.0,  999.0,  999.0,  999.0,  999.0,  999.0,  999.0,  999.0,  999.0,  999.0,  999.0,  999.0,  999.0,  999.0,  999.0,  999.0,  999.0,  999.0,  999.0,  999.0,  999.0,  999.0,  999.0,  999.0,  999.0,  999.0,  999.0,  999.0,  999.0,  999.0,  999.0,  999.0,  999.0,  999.0,  999.0,  999.0,  999.0,  999.0,  999.0,  999.0,  999.0,  999.0,  999.0,  999.0,  999.0
2011/09/07 12:50,  999.0,  999.0,  999.0,  999.0,   -3.3,  999.0,  999.0,   -3.0,   -2.8,   -2.8,   -1.7,   -1.6,   -0.9,   -0.4,    0.3,    1.2,    1.3,    0.7,    0.8,    1.0,    1.0,  999.0,  999.0,  999.0,  999.0,  999.0,  999.0,  999.0,  999.0,  999.0,    2.0,    2.2,    1.8,  999.0,  999.0,  999.0,    1.7,  999.0,  999.0,    1.0,    1.3,  999.0,  999.0,  999.0,  999.0,  999.0,  999.0,  999.0,  999.0,  999.0,  999.0,  999.0,  999.0,  999.0,  999.0,  999.0,  999.0,  999.0,  999.0,  999.0,  999.0,  999.0,  999.0,  999.0,  999.0,  999.0,  999.0,  999.0,  999.0,  999.0,  999.0,  999.0,  999.0,  999.0,  999.0,  999.0,  999.0,  999.0,  999.0,  999.0,  999.0,  999.0,  999.0,  999.0,  999.0,  999.0,  999.0,  999.0,  999.0,  999.0,  999.0,  999.0,  999.0,  999.0,  999.0,  999.0,  999.0,  999.0
2011/09/07 13:00,  999.0,  999.0,  999.0,   -1.9,   -3.3,   -2.8,   -3.2,   -2.8,   -3.2,   -3.1,   -2.7,   -1.7,   -0.7,    0.2,    0.7,    1.5,    1.5,    0.9,    0.4,    1.0,  999.0,  999.0,  999.0,  999.0,  999.0,  999.0,  999.0,  999.0,  999.0,  999.0,    2.4,    2.1,    2.1,  999.0,  999.0,  999.0,    1.6,  999.0,  999.0,    0.5,    1.1,  999.0,  999.0,  999.0,  999.0,  999.0,  999.0,  999.0,  999.0,  999.0,  999.0,  999.0,  999.0,  999.0,  999.0,  999.0,  999.0,  999.0,  999.0,  999.0,  999.0,  999.0,  999.0,  999.0,  999.0,  999.0,  999.0,  999.0,  999.0,  999.0,  999.0,  999.0,  999.0,  999.0,  999.0,  999.0,  999.0,  999.0,  999.0,  999.0,  999.0,  999.0,  999.0,  999.0,  999.0,  999.0,  999.0,  999.0,  999.0,  999.0,  999.0,  999.0,  999.0,  999.0,  999.0,  999.0,  999.0,  999.0
2011/09/07 13:10,    0.0,   -1.7,   -2.5,  999.0,   -2.4,   -2.2,   -2.0,   -2.8,   -2.5,   -2.5,   -2.8,   -1.6,   -1.0,   -0.1,    0.5,    0.9,    1.2,    0.8,    0.6,    0.8,  999.0,  999.0,  999.0,  999.0,  999.0,  999.0,  999.0,  999.0,  999.0,    3.6,  999.0,    2.0,  999.0,  999.0,    1.3,    1.3,    1.9,  999.0,    1.0,    1.4,  999.0,  999.0,  999.0,  999.0,  999.0,  999.0,  999.0,  999.0,  999.0,  999.0,  999.0,  999.0,  999.0,  999.0,  999.0,  999.0,  999.0,  999.0,  999.0,  999.0,  999.0,  999.0,  999.0,  999.0,  999.0,  999.0,  999.0,  999.0,  999.0,  999.0,  999.0,  999.0,  999.0,  999.0,  999.0,  999.0,  999.0,  999.0,  999.0,  999.0,  999.0,  999.0,  999.0,  999.0,  999.0,  999.0,  999.0,  999.0,  999.0,  999.0,  999.0,  999.0,  999.0,  999.0,  999.0,  999.0,  999.0,  999.0
2011/09/07 13:20,   -0.9,   -1.8,   -2.3,   -2.1,   -1.9,   -2.5,   -2.7,   -2.0,   -2.2,   -1.4,   -1.6,   -1.7,   -1.4,    0.4,    0.2,    1.1,    1.3,    0.8,    0.7,    0.9,  999.0,  999.0,  999.0,    1.7,  999.0,  999.0,  999.0,  999.0,  999.0,  999.0,    2.1,  999.0,  999.0,  999.0,  999.0,    1.2,  999.0,  999.0,    1.2,    1.6,  999.0,  999.0,  999.0,  999.0,  999.0,  999.0,  999.0,  999.0,  999.0,  999.0,  999.0,  999.0,  999.0,  999.0,  999.0,  999.0,  999.0,  999.0,  999.0,  999.0,  999.0,  999.0,  999.0,  999.0,  999.0,  999.0,  999.0,  999.0,  999.0,  999.0,  999.0,   -1.9,   -4.2,  999.0,  999.0,  999.0,  999.0,  999.0,  999.0,  999.0,  999.0,  999.0,  999.0,  999.0,  999.0,  999.0,  999.0,  999.0,  999.0,  999.0,  999.0,  999.0,  999.0,  999.0,  999.0,  999.0,  999.0,  999.0
2011/09/07 13:30,   -0.2,   -0.7,   -1.5,   -1.2,   -2.3,   -2.0,   -2.2,   -2.0,   -1.3,   -1.4,   -1.5,   -1.0,   -0.5,   -0.1,    0.1,    0.9,    1.4,    0.8,    0.6,  999.0,  999.0,  999.0,  999.0,  999.0,  999.0,  999.0,  999.0,  999.0,  999.0,    2.7,    2.0,  999.0,  999.0,  999.0,  999.0,    1.0,  999.0,  999.0,  999.0,    1.3,  999.0,  999.0,  999.0,    1.3,  999.0,  999.0,  999.0,  999.0,  999.0,  999.0,  999.0,  999.0,  999.0,  999.0,  999.0,  999.0,  999.0,  999.0,  999.0,  999.0,  999.0,  999.0,  999.0,  999.0,  999.0,  999.0,  999.0,  999.0,    2.0,    1.3,   -0.2,   -1.8,   -3.6,  999.0,  999.0,  999.0,  999.0,  999.0,  999.0,  999.0,  999.0,  999.0,  999.0,  999.0,  999.0,  999.0,  999.0,  999.0,  999.0,  999.0,  999.0,  999.0,  999.0,  999.0,  999.0,  999.0,  999.0,  999.0
2011/09/07 13:40,   -0.0,   -0.6,   -0.4,  999.0,  999.0,   -2.7,   -2.0,   -2.0,   -1.3,   -1.2,   -1.2,   -1.2,   -1.1,   -0.4,    0.1,    1.4,    1.3,    0.8,    0.5,  999.0,  999.0,  999.0,  999.0,  999.0,  999.0,    3.0,  999.0,  999.0,    3.0,    2.0,    1.3,  999.0,  999.0,    0.6,  999.0,    1.3,  999.0,  999.0,  999.0,    1.4,  999.0,  999.0,    1.6,    1.1,  999.0,  999.0,  999.0,  999.0,  999.0,  999.0,  999.0,  999.0,  999.0,  999.0,  999.0,  999.0,  999.0,  999.0,  999.0,  999.0,  999.0,  999.0,  999.0,  999.0,  999.0,  999.0,    1.8,    1.7,    2.3,    1.9,    0.2,   -0.9,  999.0,  999.0,  999.0,  999.0,  999.0,  999.0,  999.0,  999.0,  999.0,  999.0,  999.0,  999.0,  999.0,  999.0,  999.0,  999.0,  999.0,  999.0,  999.0,  999.0,  999.0,  999.0,  999.0,  999.0,  999.0,  999.0
2011/09/07 13:50,    0.0,   -0.2,  999.0,   -1.2,   -1.2,   -1.0,   -1.3,   -1.7,   -1.9,   -1.4,   -1.1,   -1.0,   -0.4,   -0.0,    0.4,    1.5,    1.3,    0.6,  999.0,  999.0,  999.0,  999.0,  999.0,  999.0,  999.0,  999.0,  999.0,  999.0,    2.6,    1.9,    1.5,  999.0,  999.0,    0.8,    0.8,    1.4,    1.8,  999.0,  999.0,  999.0,  999.0,  999.0,  999.0,    1.5,  999.0,  999.0,  999.0,  999.0,  999.0,  999.0,  999.0,  999.0,  999.0,  999.0,  999.0,  999.0,  999.0,  999.0,  999.0,  999.0,  999.0,  999.0,  999.0,  999.0,  999.0,  999.0,    2.5,    2.2,    2.2,    1.4,   -0.2,  999.0,   -4.4,   -5.9,  999.0,  999.0,  999.0,  999.0,  999.0,  999.0,  999.0,  999.0,  999.0,  999.0,  999.0,  999.0,  999.0,  999.0,  999.0,  999.0,  999.0,  999.0,  999.0,  999.0,  999.0,  999.0,  999.0,  999.0
2011/09/07 14:00,   -0.1,   -0.3,   -2.3,   -2.5,   -1.6,   -1.3,   -1.6,   -1.3,   -1.3,   -1.0,   -0.8,   -0.3,    0.2,    0.5,    0.8,    1.7,  999.0,  999.0,  999.0,  999.0,  999.0,  999.0,  999.0,  999.0,  999.0,  999.0,  999.0,  999.0,  999.0,    2.3,    1.8,    1.4,  999.0,    1.0,  999.0,    1.2,  999.0,    2.1,    2.4,    2.0,    2.9,  999.0,  999.0,    1.1,  999.0,  999.0,   -2.2,  999.0,  999.0,  999.0,  999.0,  999.0,  999.0,  999.0,  999.0,  999.0,  999.0,  999.0,  999.0,  999.0,  999.0,  999.0,  999.0,  999.0,    1.4,    1.5,    1.0,    0.7,    1.0,    1.6,    1.0,   -1.4,   -4.2,   -5.8,  999.0,  999.0,  999.0,  999.0,  999.0,  999.0,  999.0,  999.0,  999.0,  999.0,  999.0,  999.0,  999.0,  999.0,  999.0,  999.0,  999.0,  999.0,  999.0,  999.0,  999.0,  999.0,  999.0,  999.0
2011/09/07 14:10,   -0.1,   -0.2,   -1.0,   -1.4,   -1.6,   -1.2,   -1.3,   -1.8,   -1.5,   -1.0,   -1.1,   -0.2,   -0.8,    0.9,  999.0,    1.5,  999.0,  999.0,    2.5,  999.0,  999.0,  999.0,  999.0,  999.0,  999.0,    2.1,  999.0,  999.0,  999.0,    2.4,    1.9,    1.4,    1.4,  999.0,    1.0,    0.9,    1.8,  999.0,    2.3,    2.3,    2.9,  999.0,  999.0,    1.3,  999.0,   -1.4,  999.0,  999.0,  999.0,  999.0,  999.0,  999.0,  999.0,  999.0,  999.0,  999.0,  999.0,  999.0,  999.0,  999.0,  999.0,  999.0,  999.0,  999.0,  999.0,    0.7,    0.9,    0.6,    0.9,    2.2,    1.5,   -0.6,  999.0,  999.0,  999.0,  999.0,  999.0,  999.0,  999.0,  999.0,  999.0,  999.0,  999.0,  999.0,  999.0,  999.0,  999.0,  999.0,  999.0,  999.0,  999.0,  999.0,  999.0,  999.0,  999.0,  999.0,  999.0,  999.0
2011/09/07 14:20,   -0.4,  999.0,   -2.1,   -2.1,   -2.2,   -1.8,   -1.1,   -1.3,   -1.2,   -1.1,   -0.9,   -0.7,    0.1,    1.3,    1.3,    1.6,    1.8,    0.6,  999.0,  999.0,  999.0,  999.0,  999.0,  999.0,    2.5,  999.0,  999.0,  999.0,  999.0,    2.6,    2.2,    1.8,  999.0,  999.0,  999.0,    1.2,    2.0,    2.2,    2.5,    2.4,  999.0,  999.0,    2.2,    0.6,  999.0,  999.0,  999.0,  999.0,  999.0,  999.0,  999.0,  999.0,  999.0,  999.0,  999.0,  999.0,  999.0,  999.0,  999.0,  999.0,  999.0,  999.0,  999.0,  999.0,  999.0,  999.0,  999.0,    1.3,    1.0,    2.1,  999.0,  999.0,  999.0,  999.0,  999.0,  999.0,  999.0,  999.0,  999.0,  999.0,  999.0,  999.0,  999.0,  999.0,  999.0,  999.0,  999.0,  999.0,  999.0,  999.0,  999.0,  999.0,  999.0,  999.0,  999.0,  999.0,  999.0,  999.0
2011/09/07 14:30,    0.0,   -0.6,   -1.0,  999.0,   -2.2,   -2.8,  999.0,  999.0,   -0.6,   -0.4,   -0.4,   -0.3,   -0.2,   -0.2,    0.2,    1.2,    1.2,  999.0,  999.0,  999.0,  999.0,  999.0,  999.0,  999.0,    1.8,    2.6,  999.0,  999.0,  999.0,  999.0,    2.0,    1.8,  999.0,  999.0,    1.0,    1.3,    1.8,    2.4,    2.7,    2.4,  999.0,    2.6,    1.9,  999.0,  999.0,  999.0,  999.0,  999.0,  999.0,  999.0,  999.0,  999.0,  999.0,  999.0,  999.0,  999.0,  999.0,  999.0,  999.0,  999.0,  999.0,  999.0,  999.0,  999.0,  999.0,  999.0,  999.0,  999.0,  999.0,  999.0,  999.0,  999.0,  999.0,  999.0,  999.0,  999.0,  999.0,  999.0,  999.0,  999.0,  999.0,  999.0,  999.0,  999.0,  999.0,  999.0,  999.0,  999.0,  999.0,  999.0,  999.0,  999.0,  999.0,  999.0,  999.0,  999.0,  999.0,  999.0
2011/09/07 14:40,   -1.5,   -2.7,   -3.2,   -3.4,   -2.8,   -1.3,   -1.3,   -0.9,   -0.7,   -0.6,   -1.2,   -1.0,   -0.4,   -0.7,   -0.1,    1.0,    1.5,    0.7,    0.2,    0.1,    0.1,  999.0,  999.0,  999.0,  999.0,    2.9,  999.0,  999.0,  999.0,  999.0,    3.0,    2.8,    2.3,  999.0,  999.0,    1.3,    1.9,    2.2,    2.8,    2.4,    3.3,    2.8,  999.0,  999.0,  999.0,  999.0,  999.0,  999.0,  999.0,  999.0,  999.0,  999.0,  999.0,  999.0,  999.0,  999.0,  999.0,  999.0,  999.0,  999.0,  999.0,  999.0,  999.0,  999.0,  999.0,  999.0,  999.0,  999.0,  999.0,  999.0,  999.0,  999.0,  999.0,  999.0,  999.0,  999.0,  999.0,  999.0,  999.0,  999.0,  999.0,  999.0,  999.0,  999.0,  999.0,  999.0,  999.0,  999.0,  999.0,  999.0,  999.0,  999.0,  999.0,  999.0,  999.0,  999.0,  999.0,  999.0
2011/09/07 14:50,    0.0,  999.0,  999.0,  999.0,    0.2,   -0.7,  999.0,  999.0,   -0.7,   -0.8,   -0.1,   -0.9,    0.0,   -0.7,   -1.5,  999.0,  999.0,    0.9,    0.1,   -0.3,   -0.4,  999.0,  999.0,    1.7,  999.0,    2.7,    3.5,  999.0,  999.0,  999.0,    3.9,    3.1,    2.5,    2.3,  999.0,    1.2,    1.8,    2.2,    2.7,    2.4,    3.1,  999.0,  999.0,  999.0,  999.0,  999.0,  999.0,  999.0,  999.0,  999.0,  999.0,  999.0,  999.0,  999.0,  999.0,  999.0,  999.0,  999.0,  999.0,  999.0,  999.0,  999.0,  999.0,  999.0,  999.0,  999.0,  999.0,  999.0,  999.0,  999.0,  999.0,  999.0,  999.0,  999.0,  999.0,  999.0,  999.0,  999.0,  999.0,  999.0,  999.0,  999.0,  999.0,  999.0,  999.0,  999.0,  999.0,  999.0,  999.0,  999.0,  999.0,  999.0,  999.0,  999.0,  999.0,  999.0,  999.0,  999.0
2011/09/07 15:00,    0.0,   -0.1,   -0.3,   -0.3,   -0.2,   -2.2,   -0.8,   -0.5,  999.0,   -0.3,    0.3,   -0.6,   -0.3,   -0.6,   -0.2,    1.5,    1.5,    1.2,  999.0,    0.3,  999.0,  999.0,    0.4,    1.3,  999.0,    2.7,    3.6,  999.0,    4.2,  999.0,    3.7,    2.6,    2.4,    2.2,    1.8,    1.1,    1.6,    2.0,    2.5,    2.1,  999.0,  999.0,  999.0,  999.0,  999.0,  999.0,  999.0,  999.0,  999.0,  999.0,  999.0,  999.0,  999.0,  999.0,  999.0,  999.0,  999.0,  999.0,  999.0,  999.0,  999.0,  999.0,  999.0,  999.0,  999.0,  999.0,  999.0,  999.0,  999.0,  999.0,  999.0,  999.0,  999.0,  999.0,  999.0,  999.0,  999.0,  999.0,  999.0,  999.0,  999.0,  999.0,  999.0,  999.0,  999.0,  999.0,  999.0,  999.0,  999.0,  999.0,  999.0,  999.0,  999.0,  999.0,  999.0,  999.0,  999.0,  999.0
2011/09/07 15:10,   -0.3,   -0.4,   -0.3,   -1.0,   -1.7,   -1.3,  999.0,   -0.4,  999.0,  999.0,    1.4,    0.1,   -0.4,   -0.2,    0.2,    1.5,    1.4,    1.4,    0.7,  999.0,   -0.3,   -0.7,  999.0,    1.3,  999.0,    2.9,    3.8,  999.0,  999.0,  999.0,    3.0,  999.0,    2.2,    2.3,  999.0,  999.0,    1.0,    1.4,    1.7,  999.0,  999.0,  999.0,    2.1,  999.0,  999.0,  999.0,  999.0,  999.0,  999.0,  999.0,  999.0,  999.0,  999.0,  999.0,  999.0,  999.0,  999.0,  999.0,  999.0,  999.0,  999.0,  999.0,  999.0,  999.0,  999.0,  999.0,  999.0,  999.0,  999.0,  999.0,  999.0,  999.0,  999.0,  999.0,  999.0,  999.0,  999.0,  999.0,  999.0,  999.0,  999.0,  999.0,  999.0,  999.0,  999.0,  999.0,  999.0,  999.0,  999.0,  999.0,  999.0,  999.0,  999.0,  999.0,  999.0,  999.0,  999.0,  999.0
2011/09/07 15:20,   -0.4,   -0.4,   -0.2,    0.1,    0.3,   -0.2,    0.6,  999.0,    0.7,    1.0,    0.4,    0.2,   -0.3,    0.2,    0.9,    2.2,    2.7,    1.4,    1.4,    0.9,  999.0,  999.0,  999.0,    1.4,  999.0,    3.0,    3.9,  999.0,  999.0,  999.0,    3.1,    2.8,    2.1,  999.0,  999.0,  999.0,    1.0,    1.5,  999.0,  999.0,  999.0,  999.0,    1.2,  999.0,  999.0,  999.0,  999.0,  999.0,  999.0,  999.0,  999.0,  999.0,  999.0,  999.0,  999.0,  999.0,  999.0,  999.0,  999.0,  999.0,  999.0,  999.0,  999.0,  999.0,  999.0,  999.0,  999.0,  999.0,  999.0,  999.0,  999.0,  999.0,  999.0,  999.0,  999.0,  999.0,  999.0,  999.0,  999.0,  999.0,  999.0,  999.0,  999.0,  999.0,  999.0,  999.0,  999.0,  999.0,  999.0,  999.0,  999.0,  999.0,  999.0,  999.0,  999.0,  999.0,  999.0,  999.0
2011/09/07 15:30,   -0.1,   -0.5,   -0.6,   -0.1,   -1.3,   -1.0,    1.5,    2.1,    1.6,    0.9,    0.6,    0.2,   -0.2,    0.2,    1.6,    1.9,    2.4,    1.2,    1.1,    0.9,    0.6,  999.0,    0.8,    1.4,  999.0,    3.3,  999.0,  999.0,  999.0,  999.0,    3.4,  999.0,    2.3,  999.0,  999.0,  999.0,  999.0,    0.7,  999.0,  999.0,  999.0,  999.0,    1.3,  999.0,  999.0,  999.0,  999.0,  999.0,  999.0,  999.0,  999.0,  999.0,  999.0,  999.0,  999.0,  999.0,  999.0,  999.0,  999.0,  999.0,  999.0,  999.0,  999.0,  999.0,  999.0,  999.0,  999.0,  999.0,  999.0,  999.0,  999.0,  999.0,  999.0,  999.0,  999.0,  999.0,  999.0,  999.0,  999.0,  999.0,  999.0,  999.0,  999.0,  999.0,  999.0,  999.0,  999.0,  999.0,  999.0,  999.0,  999.0,  999.0,  999.0,  999.0,  999.0,  999.0,  999.0,  999.0
2011/09/07 15:40,   -0.2,   -1.0,   -1.3,   -1.0,   -0.9,   -0.5,    0.5,    0.9,    0.7,  999.0,    0.3,   -0.6,   -0.0,    0.5,    1.9,    2.1,    1.8,    1.3,    1.4,    0.6,    0.6,  999.0,    0.9,  999.0,  999.0,    3.5,  999.0,    4.1,  999.0,    3.0,    3.8,  999.0,    2.3,  999.0,  999.0,  999.0,  999.0,  999.0,  999.0,  999.0,  999.0,  999.0,  999.0,  999.0,  999.0,  999.0,  999.0,  999.0,  999.0,  999.0,  999.0,  999.0,  999.0,  999.0,  999.0,  999.0,  999.0,  999.0,  999.0,  999.0,  999.0,  999.0,  999.0,  999.0,  999.0,  999.0,  999.0,  999.0,  999.0,  999.0,  999.0,  999.0,  999.0,  999.0,  999.0,  999.0,  999.0,  999.0,  999.0,  999.0,  999.0,  999.0,  999.0,  999.0,  999.0,  999.0,  999.0,  999.0,  999.0,  999.0,  999.0,  999.0,  999.0,  999.0,  999.0,  999.0,  999.0,  999.0
2011/09/07 15:50,   -0.3,   -1.5,   -1.6,   -1.6,   -0.6,    0.1,    0.7,    1.0,    1.0,    0.4,   -0.1,    0.1,   -0.3,    0.1,    1.5,    1.9,    1.8,    1.3,    0.8,  999.0,    0.4,  999.0,  999.0,    0.9,    2.2,    2.8,    3.5,    3.7,    3.4,    3.6,    3.6,    3.0,    3.1,  999.0,    3.0,  999.0,  999.0,  999.0,    1.3,  999.0,    2.9,  999.0,  999.0,  999.0,  999.0,  999.0,  999.0,  999.0,  999.0,  999.0,  999.0,  999.0,  999.0,  999.0,  999.0,  999.0,  999.0,  999.0,  999.0,  999.0,  999.0,  999.0,  999.0,  999.0,  999.0,  999.0,  999.0,  999.0,  999.0,  999.0,  999.0,  999.0,  999.0,  999.0,  999.0,  999.0,  999.0,  999.0,  999.0,  999.0,  999.0,  999.0,  999.0,  999.0,  999.0,  999.0,  999.0,  999.0,  999.0,  999.0,  999.0,  999.0,  999.0,  999.0,  999.0,  999.0,  999.0,  999.0
2011/09/07 16:00,    0.1,   -0.5,   -0.7,  999.0,   -0.2,    0.9,    1.5,    1.2,    0.7,    0.4,   -0.4,   -0.5,   -0.7,   -0.0,    1.3,    1.6,    1.5,    0.4,  999.0,   -0.6,  999.0,  999.0,    0.4,    1.2,    2.6,    2.9,    3.4,    3.6,    3.6,    3.7,    4.0,    3.4,    3.1,  999.0,    3.3,    2.0,    1.9,  999.0,  999.0,    2.6,    3.9,  999.0,  999.0,  999.0,  999.0,  999.0,  999.0,  999.0,  999.0,  999.0,  999.0,  999.0,  999.0,  999.0,  999.0,  999.0,  999.0,  999.0,  999.0,  999.0,  999.0,  999.0,  999.0,  999.0,  999.0,  999.0,  999.0,  999.0,  999.0,  999.0,  999.0,  999.0,  999.0,  999.0,  999.0,  999.0,  999.0,  999.0,  999.0,  999.0,  999.0,  999.0,  999.0,  999.0,  999.0,  999.0,  999.0,  999.0,  999.0,  999.0,  999.0,  999.0,  999.0,  999.0,  999.0,  999.0,  999.0,  999.0
2011/09/07 16:10,   -0.1,    0.0,   -0.3,   -0.7,   -0.4,    0.6,    1.7,    1.9,    1.0,    0.6,   -0.2,   -0.5,   -0.3,    0.1,    1.3,    1.7,    1.4,  999.0,    1.3,    0.1,  999.0,    0.7,    1.1,    2.1,    3.5,    3.0,    3.3,    4.0,    4.1,    3.9,    4.1,    3.4,    2.6,  999.0,  999.0,  999.0,  999.0,  999.0,  999.0,    3.4,    3.8,  999.0,  999.0,  999.0,  999.0,  999.0,  999.0,  999.0,  999.0,  999.0,  999.0,  999.0,  999.0,  999.0,  999.0,  999.0,  999.0,  999.0,  999.0,  999.0,  999.0,  999.0,  999.0,  999.0,  999.0,  999.0,  999.0,  999.0,  999.0,  999.0,  999.0,  999.0,  999.0,  999.0,  999.0,  999.0,  999.0,  999.0,  999.0,  999.0,  999.0,  999.0,  999.0,  999.0,  999.0,  999.0,  999.0,  999.0,  999.0,  999.0,  999.0,  999.0,  999.0,  999.0,  999.0,  999.0,  999.0,  999.0
2011/09/07 16:20,  999.0,  999.0,   -1.6,   -0.9,   -0.7,    0.1,    1.4,    1.5,    1.6,  999.0,    0.2,   -0.6,   -0.5,    0.1,    1.2,    1.7,    1.5,    1.1,  999.0,    0.9,    1.1,    1.0,    1.5,    2.6,    2.8,    3.0,    3.6,    4.2,    4.2,    4.6,    4.5,    4.1,    3.8,    3.2,    3.2,  999.0,    2.2,  999.0,  999.0,    2.9,  999.0,  999.0,  999.0,  999.0,  999.0,  999.0,  999.0,  999.0,  999.0,  999.0,  999.0,  999.0,  999.0,  999.0,  999.0,  999.0,  999.0,  999.0,  999.0,  999.0,  999.0,  999.0,  999.0,  999.0,  999.0,  999.0,  999.0,  999.0,  999.0,  999.0,  999.0,  999.0,  999.0,  999.0,  999.0,  999.0,  999.0,  999.0,  999.0,  999.0,  999.0,  999.0,  999.0,  999.0,  999.0,  999.0,  999.0,  999.0,  999.0,  999.0,  999.0,  999.0,  999.0,  999.0,  999.0,  999.0,  999.0,  999.0
2011/09/07 16:30,   -0.2,   -1.2,   -1.4,   -1.5,   -1.2,    0.2,    1.2,    1.7,    2.1,    2.6,  999.0,    0.7,    0.5,    0.6,    1.7,    1.2,    1.3,    0.9,    0.1,    0.7,  999.0,    1.0,    1.7,    2.3,    2.7,    3.4,    3.6,    4.0,    4.0,    4.1,    4.1,    4.1,    2.5,    2.7,  999.0,  999.0,  999.0,  999.0,  999.0,  999.0,  999.0,  999.0,  999.0,  999.0,  999.0,  999.0,  999.0,  999.0,  999.0,  999.0,  999.0,  999.0,  999.0,  999.0,  999.0,  999.0,  999.0,  999.0,  999.0,  999.0,  999.0,  999.0,  999.0,  999.0,  999.0,  999.0,  999.0,  999.0,  999.0,  999.0,  999.0,  999.0,  999.0,  999.0,  999.0,  999.0,  999.0,  999.0,  999.0,  999.0,  999.0,  999.0,  999.0,  999.0,  999.0,  999.0,  999.0,  999.0,  999.0,  999.0,  999.0,  999.0,  999.0,  999.0,  999.0,  999.0,  999.0,  999.0
2011/09/07 16:40,  999.0,   -1.0,   -0.6,   -1.7,   -1.8,   -0.7,    0.9,    1.9,    1.0,    1.6,    0.4,    0.6,    0.6,    1.4,    2.4,    1.8,  999.0,    1.2,    0.7,    0.8,    1.2,    1.4,    2.1,    2.8,    3.6,    4.1,    4.6,    4.7,    4.7,    4.9,    4.8,    4.4,    4.2,    3.6,  999.0,  999.0,  999.0,    2.0,  999.0,  999.0,    2.3,  999.0,  999.0,  999.0,  999.0,  999.0,  999.0,  999.0,  999.0,  999.0,  999.0,  999.0,  999.0,  999.0,  999.0,  999.0,  999.0,  999.0,  999.0,  999.0,  999.0,  999.0,  999.0,  999.0,  999.0,  999.0,  999.0,  999.0,  999.0,  999.0,  999.0,  999.0,  999.0,  999.0,  999.0,  999.0,  999.0,  999.0,  999.0,  999.0,  999.0,  999.0,  999.0,  999.0,  999.0,  999.0,  999.0,  999.0,  999.0,  999.0,  999.0,  999.0,  999.0,  999.0,  999.0,  999.0,  999.0,  999.0
2011/09/07 16:50,   -0.3,   -0.7,   -0.7,   -1.0,    0.1,    1.1,  999.0,    2.7,  999.0,    1.9,    1.6,    1.2,    1.7,    2.1,    1.8,    1.8,    1.6,    1.2,    1.0,    0.7,    0.4,  999.0,    0.9,    1.7,    2.1,    2.3,    3.1,    3.8,    3.8,    4.1,    3.9,    3.9,    3.1,    3.0,    2.4,    1.8,    1.1,  999.0,  999.0,  999.0,    2.5,  999.0,  999.0,  999.0,  999.0,  999.0,  999.0,  999.0,  999.0,  999.0,  999.0,  999.0,  999.0,  999.0,  999.0,  999.0,  999.0,  999.0,  999.0,  999.0,  999.0,  999.0,  999.0,  999.0,  999.0,  999.0,  999.0,  999.0,  999.0,  999.0,  999.0,  999.0,  999.0,  999.0,  999.0,  999.0,  999.0,  999.0,  999.0,  999.0,  999.0,  999.0,  999.0,  999.0,  999.0,  999.0,  999.0,  999.0,  999.0,  999.0,  999.0,  999.0,  999.0,  999.0,  999.0,  999.0,  999.0,  999.0
2011/09/07 17:00,   -0.3,   -1.0,   -1.3,   -1.4,    0.1,    0.4,    2.1,    1.9,    1.6,    0.6,    0.5,   -0.3,    0.7,    1.5,    1.6,    1.6,    1.3,    0.6,    0.4,    0.6,    1.3,    1.6,    2.2,    2.8,    3.2,    3.7,    4.7,    4.8,    4.7,    4.5,    4.1,    3.2,    2.6,    2.0,    2.3,  999.0,  999.0,  999.0,  999.0,  999.0,  999.0,  999.0,  999.0,  999.0,  999.0,  999.0,  999.0,  999.0,  999.0,  999.0,  999.0,  999.0,  999.0,  999.0,  999.0,  999.0,  999.0,  999.0,  999.0,  999.0,  999.0,  999.0,  999.0,  999.0,  999.0,  999.0,  999.0,  999.0,  999.0,  999.0,  999.0,  999.0,  999.0,  999.0,  999.0,  999.0,  999.0,  999.0,  999.0,  999.0,  999.0,  999.0,  999.0,  999.0,  999.0,  999.0,  999.0,  999.0,  999.0,  999.0,  999.0,  999.0,  999.0,  999.0,  999.0,  999.0,  999.0,  999.0
2011/09/07 17:10,   -0.4,   -2.0,   -2.0,   -0.7,    0.6,    1.6,    2.3,    2.8,    1.6,    1.1,   -0.0,   -0.7,   -0.3,    0.6,    1.0,    1.5,    1.2,    1.0,    0.8,    0.5,    0.9,    1.4,    2.2,    2.8,    3.5,    3.7,    3.7,    3.8,    4.3,    4.6,    4.2,    2.8,    1.8,    1.5,    1.4,    1.3,  999.0,  999.0,    2.0,  999.0,    2.9,  999.0,  999.0,  999.0,  999.0,  999.0,  999.0,  999.0,  999.0,  999.0,  999.0,  999.0,  999.0,  999.0,  999.0,  999.0,  999.0,  999.0,  999.0,  999.0,  999.0,  999.0,  999.0,  999.0,  999.0,  999.0,  999.0,  999.0,  999.0,  999.0,  999.0,  999.0,  999.0,  999.0,  999.0,  999.0,  999.0,  999.0,  999.0,  999.0,  999.0,  999.0,  999.0,  999.0,  999.0,  999.0,  999.0,  999.0,  999.0,  999.0,  999.0,  999.0,  999.0,  999.0,  999.0,  999.0,  999.0,  999.0
2011/09/07 17:20,   -1.2,   -2.3,   -0.7,  999.0,    0.4,    1.8,  999.0,  999.0,    1.7,    1.5,    0.5,    0.1,   -0.1,    0.8,    1.6,    1.4,    1.0,    0.6,    0.3,    0.0,    0.6,    0.9,    1.5,    2.0,    3.0,    3.4,    3.6,    3.9,    4.2,    3.8,    4.2,    3.8,    2.8,    2.2,    0.8,    1.1,  999.0,    1.5,    1.7,    2.6,  999.0,  999.0,  999.0,  999.0,  999.0,  999.0,  999.0,  999.0,  999.0,  999.0,  999.0,  999.0,  999.0,  999.0,  999.0,  999.0,  999.0,  999.0,  999.0,  999.0,  999.0,  999.0,  999.0,  999.0,  999.0,  999.0,  999.0,  999.0,  999.0,  999.0,  999.0,  999.0,  999.0,  999.0,  999.0,  999.0,  999.0,  999.0,  999.0,  999.0,  999.0,  999.0,  999.0,  999.0,  999.0,  999.0,  999.0,  999.0,  999.0,  999.0,  999.0,  999.0,  999.0,  999.0,  999.0,  999.0,  999.0,  999.0
2011/09/07 17:30,  999.0,  999.0,  999.0,  999.0,  999.0,  999.0,  999.0,    3.4,  999.0,    3.1,    1.6,    0.4,   -0.0,    0.1,    0.4,    0.8,    0.3,    0.3,   -0.0,   -0.2,   -0.4,    0.2,    0.7,  999.0,    1.9,    2.7,    4.1,    4.7,    4.3,    4.3,    4.4,    4.0,    3.0,    2.2,    1.1,    0.5,    1.0,  999.0,  999.0,  999.0,  999.0,  999.0,  999.0,  999.0,  999.0,  999.0,  999.0,  999.0,  999.0,  999.0,  999.0,  999.0,  999.0,  999.0,  999.0,  999.0,  999.0,  999.0,  999.0,  999.0,  999.0,  999.0,  999.0,  999.0,  999.0,  999.0,  999.0,  999.0,  999.0,  999.0,  999.0,  999.0,  999.0,  999.0,  999.0,  999.0,  999.0,  999.0,  999.0,  999.0,  999.0,  999.0,  999.0,  999.0,  999.0,  999.0,  999.0,  999.0,  999.0,  999.0,  999.0,  999.0,  999.0,  999.0,  999.0,  999.0,  999.0,  999.0
2011/09/07 17:40,  999.0,  999.0,  999.0,  999.0,  999.0,  999.0,  999.0,  999.0,    2.7,    1.9,    0.8,    0.3,    0.2,    0.9,    1.2,    1.1,    0.9,    0.9,    0.9,    0.3,  999.0,    1.2,    1.2,  999.0,  999.0,    2.5,    3.0,    4.0,    4.4,    3.6,    3.1,    3.1,    3.2,    2.5,    1.9,    1.9,  999.0,  999.0,  999.0,    1.9,  999.0,  999.0,  999.0,  999.0,  999.0,  999.0,  999.0,  999.0,  999.0,  999.0,  999.0,  999.0,  999.0,  999.0,  999.0,  999.0,  999.0,  999.0,  999.0,  999.0,  999.0,  999.0,  999.0,  999.0,  999.0,  999.0,  999.0,  999.0,  999.0,  999.0,  999.0,  999.0,  999.0,  999.0,  999.0,  999.0,  999.0,  999.0,  999.0,  999.0,  999.0,  999.0,  999.0,  999.0,  999.0,  999.0,  999.0,  999.0,  999.0,  999.0,  999.0,  999.0,  999.0,  999.0,  999.0,  999.0,  999.0,  999.0
2011/09/07 17:50,  999.0,  999.0,  999.0,  999.0,  999.0,  999.0,  999.0,  999.0,  999.0,    2.1,    1.7,    0.6,   -0.4,   -0.4,    0.2,    0.5,   -0.0,   -0.4,   -0.3,   -0.6,   -0.4,    0.1,  999.0,    1.6,    2.2,    2.7,    3.2,    3.9,    3.5,    3.2,    2.5,    2.0,    1.8,    1.9,    1.1,  999.0,  999.0,  999.0,  999.0,    1.1,  999.0,  999.0,  999.0,  999.0,  999.0,  999.0,  999.0,  999.0,  999.0,  999.0,  999.0,  999.0,  999.0,  999.0,  999.0,  999.0,  999.0,  999.0,  999.0,  999.0,  999.0,  999.0,  999.0,  999.0,  999.0,  999.0,  999.0,  999.0,  999.0,  999.0,  999.0,  999.0,  999.0,  999.0,  999.0,  999.0,  999.0,  999.0,  999.0,  999.0,  999.0,  999.0,  999.0,  999.0,  999.0,  999.0,  999.0,  999.0,  999.0,  999.0,  999.0,  999.0,  999.0,  999.0,  999.0,  999.0,  999.0,  999.0
2011/09/07 18:00,  999.0,  999.0,  999.0,   -0.6,   -0.1,    0.9,    1.0,    1.5,    2.1,    2.3,    1.8,    0.7,  999.0,   -0.0,    0.2,   -0.2,   -0.1,   -0.7,   -1.1,   -1.2,   -1.0,   -0.7,  999.0,    1.3,    1.5,    2.1,    2.6,    3.1,    3.4,    2.8,    1.9,    0.8,    1.0,  999.0,    1.1,  999.0,    0.1,  999.0,  999.0,    1.6,  999.0,  999.0,  999.0,  999.0,  999.0,  999.0,  999.0,  999.0,  999.0,  999.0,  999.0,  999.0,  999.0,  999.0,  999.0,  999.0,  999.0,  999.0,  999.0,  999.0,  999.0,  999.0,  999.0,  999.0,  999.0,  999.0,  999.0,  999.0,  999.0,  999.0,  999.0,  999.0,  999.0,  999.0,  999.0,  999.0,  999.0,  999.0,  999.0,  999.0,  999.0,  999.0,  999.0,  999.0,  999.0,  999.0,  999.0,  999.0,  999.0,  999.0,  999.0,  999.0,  999.0,  999.0,  999.0,  999.0,  999.0,  999.0
2011/09/07 18:10,  999.0,  999.0,  999.0,  999.0,  999.0,  999.0,  999.0,  999.0,   -4.5,   -4.0,   -4.1,   -2.4,   -2.1,  999.0,   -1.2,  999.0,   -0.2,   -0.5,   -0.8,   -0.9,   -1.1,   -0.7,   -0.3,    0.2,    1.0,    1.8,    2.5,    2.8,    2.6,    2.0,    1.0,    0.6,    0.4,    0.7,   -0.1,  999.0,  999.0,  999.0,    0.9,    2.5,  999.0,  999.0,  999.0,  999.0,  999.0,  999.0,  999.0,  999.0,  999.0,  999.0,  999.0,  999.0,  999.0,  999.0,  999.0,  999.0,  999.0,  999.0,  999.0,  999.0,  999.0,  999.0,  999.0,  999.0,  999.0,  999.0,  999.0,  999.0,  999.0,  999.0,  999.0,  999.0,  999.0,  999.0,  999.0,  999.0,  999.0,  999.0,  999.0,  999.0,  999.0,  999.0,  999.0,  999.0,  999.0,  999.0,  999.0,  999.0,  999.0,  999.0,  999.0,  999.0,  999.0,  999.0,  999.0,  999.0,  999.0,  999.0
2011/09/07 18:20,  999.0,  999.0,  999.0,  999.0,  999.0,  999.0,  999.0,  999.0,  999.0,  999.0,   -3.7,  999.0,  999.0,  999.0,  999.0,  999.0,   -0.8,   -1.4,   -1.5,   -1.5,  999.0,   -0.9,   -0.2,  999.0,  999.0,    2.2,    2.8,    3.4,    3.5,    3.4,    2.7,    2.0,    1.7,    0.6,    0.6,    0.1,  999.0,  999.0,    1.4,    2.3,    3.4,  999.0,  999.0,  999.0,  999.0,  999.0,  999.0,  999.0,  999.0,  999.0,  999.0,  999.0,  999.0,  999.0,  999.0,  999.0,  999.0,  999.0,  999.0,  999.0,  999.0,  999.0,  999.0,  999.0,  999.0,  999.0,  999.0,  999.0,  999.0,  999.0,  999.0,  999.0,  999.0,  999.0,  999.0,  999.0,  999.0,  999.0,  999.0,  999.0,  999.0,  999.0,  999.0,  999.0,  999.0,  999.0,  999.0,  999.0,  999.0,  999.0,  999.0,  999.0,  999.0,  999.0,  999.0,  999.0,  999.0,  999.0
2011/09/07 18:30,  999.0,  999.0,  999.0,  999.0,  999.0,  999.0,  999.0,  999.0,  999.0,  999.0,  999.0,  999.0,  999.0,   -0.1,  999.0,   -0.7,  999.0,   -0.9,   -1.1,   -0.6,   -1.4,   -0.4,  999.0,  999.0,  999.0,    1.9,    2.6,    3.2,    3.1,    3.5,    2.6,    1.8,    1.3,    0.7,  999.0,  999.0,  999.0,    0.4,    1.5,    2.7,  999.0,  999.0,  999.0,  999.0,  999.0,  999.0,  999.0,  999.0,  999.0,  999.0,  999.0,  999.0,  999.0,  999.0,  999.0,  999.0,  999.0,  999.0,  999.0,  999.0,  999.0,  999.0,  999.0,  999.0,  999.0,  999.0,  999.0,  999.0,  999.0,  999.0,  999.0,  999.0,  999.0,  999.0,  999.0,  999.0,  999.0,  999.0,  999.0,  999.0,  999.0,  999.0,  999.0,  999.0,  999.0,  999.0,  999.0,  999.0,  999.0,  999.0,  999.0,  999.0,  999.0,  999.0,  999.0,  999.0,  999.0,  999.0
2011/09/07 18:40,   -1.3,  999.0,  999.0,  999.0,  999.0,  999.0,  999.0,  999.0,  999.0,  999.0,  999.0,  999.0,  999.0,  999.0,   -1.4,  999.0,   -0.1,   -0.3,  999.0,   -1.1,   -1.0,   -1.0,   -0.3,    0.2,  999.0,    1.8,    2.9,    3.4,    3.4,    3.4,    3.1,    2.1,    1.4,    1.0,    1.0,    0.5,    0.0,    0.5,    0.6,    2.0,  999.0,  999.0,  999.0,  999.0,  999.0,  999.0,  999.0,  999.0,  999.0,  999.0,  999.0,  999.0,  999.0,  999.0,  999.0,  999.0,  999.0,  999.0,  999.0,  999.0,  999.0,  999.0,  999.0,  999.0,  999.0,  999.0,  999.0,  999.0,  999.0,  999.0,  999.0,  999.0,  999.0,  999.0,  999.0,  999.0,  999.0,  999.0,  999.0,  999.0,  999.0,  999.0,  999.0,  999.0,  999.0,  999.0,  999.0,  999.0,  999.0,  999.0,  999.0,  999.0,  999.0,  999.0,  999.0,  999.0,  999.0,  999.0
2011/09/07 18:50,  999.0,  999.0,  999.0,  999.0,  999.0,  999.0,  999.0,  999.0,  999.0,  999.0,  999.0,  999.0,  999.0,  999.0,  999.0,  999.0,  999.0,   -0.2,  999.0,   -2.4,  999.0,   -0.6,   -0.7,  999.0,    1.1,    2.3,    2.4,    2.2,    2.4,    2.6,    1.9,    1.4,    0.8,    0.8,    0.7,  999.0,   -0.1,   -0.0,    1.4,    1.8,  999.0,  999.0,  999.0,  999.0,  999.0,  999.0,  999.0,  999.0,  999.0,  999.0,  999.0,  999.0,  999.0,  999.0,  999.0,  999.0,  999.0,  999.0,  999.0,  999.0,  999.0,  999.0,  999.0,  999.0,  999.0,  999.0,  999.0,  999.0,  999.0,  999.0,  999.0,  999.0,  999.0,  999.0,  999.0,  999.0,  999.0,  999.0,  999.0,  999.0,  999.0,  999.0,  999.0,  999.0,  999.0,  999.0,  999.0,  999.0,  999.0,  999.0,  999.0,  999.0,  999.0,  999.0,  999.0,  999.0,  999.0,  999.0
2011/09/07 19:00,  999.0,  999.0,  999.0,  999.0,  999.0,  999.0,  999.0,  999.0,  999.0,  999.0,  999.0,  999.0,  999.0,  999.0,  999.0,  999.0,  999.0,  999.0,   -0.6,   -0.7,   -1.5,   -1.0,    0.8,    1.8,    2.2,    2.5,    2.3,    2.1,    2.1,    2.0,    1.1,    0.9,    0.8,    1.1,    1.1,    0.3,    0.4,    0.3,    1.4,  999.0,  999.0,  999.0,  999.0,  999.0,  999.0,  999.0,  999.0,  999.0,  999.0,  999.0,  999.0,  999.0,  999.0,  999.0,  999.0,  999.0,  999.0,  999.0,  999.0,  999.0,  999.0,  999.0,  999.0,  999.0,  999.0,  999.0,  999.0,  999.0,  999.0,  999.0,  999.0,  999.0,  999.0,  999.0,  999.0,  999.0,  999.0,  999.0,  999.0,  999.0,  999.0,  999.0,  999.0,  999.0,  999.0,  999.0,  999.0,  999.0,  999.0,  999.0,  999.0,  999.0,  999.0,  999.0,  999.0,  999.0,  999.0,  999.0
2011/09/07 19:10,  999.0,  999.0,  999.0,   -1.4,  999.0,  999.0,  999.0,  999.0,  999.0,  999.0,  999.0,  999.0,  999.0,  999.0,  999.0,    0.5,    0.2,    0.0,    0.0,   -0.9,   -0.2,  999.0,    0.7,  999.0,    2.2,    2.7,    2.2,    1.3,    1.9,    1.9,    1.3,    0.2,    0.6,    1.0,    1.3,    0.8,    0.3,  999.0,    1.6,  999.0,  999.0,  999.0,  999.0,  999.0,  999.0,  999.0,  999.0,  999.0,  999.0,  999.0,  999.0,   -4.3,  999.0,  999.0,  999.0,  999.0,  999.0,  999.0,  999.0,  999.0,  999.0,  999.0,  999.0,  999.0,  999.0,  999.0,  999.0,  999.0,  999.0,  999.0,  999.0,  999.0,  999.0,  999.0,  999.0,  999.0,  999.0,  999.0,  999.0,  999.0,  999.0,  999.0,  999.0,  999.0,  999.0,  999.0,  999.0,  999.0,  999.0,  999.0,  999.0,  999.0,  999.0,  999.0,  999.0,  999.0,  999.0,  999.0
2011/09/07 19:20,  999.0,   -2.5,  999.0,   -1.2,   -4.5,  999.0,   -2.8,  999.0,  999.0,  999.0,  999.0,  999.0,  999.0,  999.0,  999.0,   -0.7,  999.0,  999.0,  999.0,  999.0,  999.0,    0.1,    1.7,    2.3,    3.3,    2.5,    1.9,    1.7,    2.2,    3.1,    2.7,    1.7,    0.7,    0.5,    0.2,    0.1,    0.2,    0.5,    1.6,    1.3,  999.0,  999.0,  999.0,  999.0,  999.0,  999.0,  999.0,  999.0,  999.0,  999.0,  999.0,  999.0,  999.0,  999.0,  999.0,  999.0,  999.0,  999.0,  999.0,  999.0,  999.0,  999.0,  999.0,  999.0,  999.0,  999.0,  999.0,  999.0,  999.0,  999.0,  999.0,  999.0,  999.0,  999.0,  999.0,  999.0,  999.0,  999.0,  999.0,  999.0,  999.0,  999.0,  999.0,  999.0,  999.0,  999.0,  999.0,  999.0,  999.0,  999.0,  999.0,  999.0,  999.0,  999.0,  999.0,  999.0,  999.0,  999.0
2011/09/07 19:30,  999.0,   -0.4,  999.0,   -1.1,  999.0,  999.0,  999.0,  999.0,  999.0,  999.0,  999.0,  999.0,  999.0,   -1.0,  999.0,  999.0,  999.0,    0.2,  999.0,  999.0,  999.0,  999.0,  999.0,    2.4,  999.0,    2.7,    3.0,    3.5,    4.1,    4.4,    4.0,    3.1,    0.9,    0.2,    0.2,   -0.1,    0.2,    1.4,    1.9,    1.3,  999.0,  999.0,  999.0,  999.0,  999.0,  999.0,  999.0,  999.0,  999.0,  999.0,  999.0,  999.0,  999.0,  999.0,  999.0,  999.0,  999.0,  999.0,  999.0,  999.0,  999.0,  999.0,  999.0,  999.0,  999.0,  999.0,  999.0,  999.0,  999.0,  999.0,  999.0,  999.0,  999.0,  999.0,  999.0,  999.0,  999.0,  999.0,  999.0,  999.0,  999.0,  999.0,  999.0,  999.0,  999.0,  999.0,  999.0,  999.0,  999.0,  999.0,  999.0,  999.0,  999.0,  999.0,  999.0,  999.0,  999.0,  999.0
2011/09/07 19:40,  999.0,    0.5,    0.3,  999.0,    1.1,   -0.9,  999.0,  999.0,  999.0,  999.0,  999.0,  999.0,  999.0,  999.0,  999.0,  999.0,  999.0,  999.0,  999.0,  999.0,  999.0,  999.0,  999.0,    2.0,    2.1,    2.0,    2.2,    2.5,    3.2,    3.8,    4.1,    3.5,    1.0,    0.5,  999.0,    0.0,   -0.0,    1.3,    1.7,    1.5,  999.0,  999.0,  999.0,  999.0,  999.0,  999.0,  999.0,  999.0,  999.0,  999.0,  999.0,  999.0,  999.0,  999.0,  999.0,  999.0,  999.0,  999.0,  999.0,  999.0,  999.0,  999.0,  999.0,  999.0,  999.0,  999.0,  999.0,  999.0,  999.0,  999.0,  999.0,  999.0,  999.0,  999.0,  999.0,  999.0,  999.0,  999.0,  999.0,  999.0,  999.0,  999.0,  999.0,  999.0,  999.0,  999.0,  999.0,  999.0,  999.0,  999.0,  999.0,  999.0,  999.0,  999.0,  999.0,  999.0,  999.0,  999.0
2011/09/07 19:50,  999.0,  999.0,  999.0,  999.0,  999.0,  999.0,  999.0,  999.0,  999.0,  999.0,  999.0,  999.0,  999.0,  999.0,   -1.6,  999.0,  999.0,  999.0,  999.0,  999.0,   -0.1,   -0.2,    0.2,    1.7,    2.0,    1.7,    1.8,    2.9,    2.4,    2.3,    3.1,    3.5,    1.8,    1.0,    0.7,  999.0,    0.5,    1.5,    1.6,  999.0,  999.0,  999.0,  999.0,  999.0,  999.0,  999.0,  999.0,  999.0,  999.0,  999.0,  999.0,  999.0,  999.0,  999.0,  999.0,  999.0,  999.0,  999.0,  999.0,  999.0,  999.0,  999.0,  999.0,  999.0,  999.0,  999.0,  999.0,  999.0,  999.0,  999.0,  999.0,  999.0,  999.0,  999.0,  999.0,  999.0,  999.0,  999.0,  999.0,  999.0,  999.0,  999.0,  999.0,  999.0,  999.0,  999.0,  999.0,  999.0,  999.0,  999.0,  999.0,  999.0,  999.0,  999.0,  999.0,  999.0,  999.0,  999.0
2011/09/07 20:00,   -3.1,  999.0,  999.0,  999.0,   -1.7,  999.0,  999.0,  999.0,  999.0,  999.0,  999.0,  999.0,  999.0,  999.0,   -2.1,  999.0,  999.0,   -0.3,  999.0,    0.5,  999.0,    0.3,    0.3,    1.1,    1.5,    2.1,    2.2,    2.0,    2.1,    2.5,    2.1,    3.1,    2.8,    1.6,    0.9,  999.0,    0.7,    0.9,    1.0,  999.0,  999.0,  999.0,  999.0,  999.0,  999.0,  999.0,  999.0,  999.0,  999.0,   -3.8,   -4.4,  999.0,  999.0,  999.0,  999.0,  999.0,  999.0,  999.0,  999.0,  999.0,  999.0,  999.0,  999.0,  999.0,  999.0,  999.0,  999.0,  999.0,  999.0,  999.0,  999.0,  999.0,  999.0,  999.0,  999.0,  999.0,  999.0,  999.0,  999.0,  999.0,  999.0,  999.0,  999.0,  999.0,  999.0,  999.0,  999.0,  999.0,  999.0,  999.0,  999.0,  999.0,  999.0,  999.0,  999.0,  999.0,  999.0,  999.0
2011/09/07 20:10,  999.0,    1.8,  999.0,  999.0,  999.0,   -2.3,   -3.2,  999.0,  999.0,  999.0,   -1.2,   -1.3,   -0.9,  999.0,   -1.2,  999.0,  999.0,  999.0,   -0.2,  999.0,   -0.1,    0.3,    1.0,    1.7,    2.4,    2.3,    2.0,    2.1,    2.5,    2.3,    2.7,    3.3,    2.4,    1.2,    0.4,   -0.4,    0.1,    0.4,    0.6,  999.0,  999.0,  999.0,  999.0,  999.0,  999.0,  999.0,  999.0,  999.0,  999.0,  999.0,   -4.4,  999.0,  999.0,  999.0,  999.0,  999.0,  999.0,  999.0,  999.0,  999.0,  999.0,  999.0,  999.0,  999.0,  999.0,  999.0,  999.0,  999.0,  999.0,  999.0,  999.0,  999.0,  999.0,  999.0,  999.0,  999.0,  999.0,  999.0,  999.0,  999.0,  999.0,  999.0,  999.0,  999.0,  999.0,  999.0,  999.0,  999.0,  999.0,  999.0,  999.0,  999.0,  999.0,  999.0,  999.0,  999.0,  999.0,  999.0
2011/09/07 20:20,    0.4,    0.6,  999.0,  999.0,  999.0,  999.0,  999.0,   -1.8,  999.0,   -1.3,   -0.8,   -0.9,   -1.1,   -0.9,   -1.0,   -1.0,   -1.0,   -0.1,   -0.2,   -0.2,    0.3,    0.3,    0.5,    0.9,    1.3,    2.1,    2.8,    2.8,    2.9,    3.2,    3.6,    3.2,    2.4,    1.0,    0.7,   -0.1,   -0.4,    0.2,  999.0,  999.0,  999.0,  999.0,  999.0,  999.0,  999.0,  999.0,  999.0,  999.0,  999.0,  999.0,  999.0,  999.0,  999.0,  999.0,  999.0,  999.0,  999.0,  999.0,  999.0,  999.0,  999.0,  999.0,  999.0,  999.0,  999.0,  999.0,  999.0,  999.0,  999.0,  999.0,  999.0,  999.0,  999.0,  999.0,  999.0,  999.0,  999.0,  999.0,  999.0,  999.0,  999.0,  999.0,  999.0,  999.0,  999.0,  999.0,  999.0,  999.0,  999.0,  999.0,  999.0,  999.0,  999.0,  999.0,  999.0,  999.0,  999.0,  999.0
2011/09/07 20:30,   -0.7,   -1.3,  999.0,   -0.5,   -1.5,  999.0,  999.0,  999.0,  999.0,   -1.2,  999.0,  999.0,  999.0,  999.0,  999.0,   -0.9,   -0.7,   -0.8,   -0.8,  999.0,  999.0,    0.2,    0.8,    0.6,    1.3,    1.8,    2.3,    2.2,    2.2,    2.3,    2.8,    3.3,    3.5,    1.0,    0.1,  999.0,   -1.3,   -0.7,    0.3,    0.4,    0.6,  999.0,  999.0,  999.0,  999.0,  999.0,  999.0,  999.0,  999.0,  999.0,  999.0,  999.0,  999.0,  999.0,  999.0,  999.0,  999.0,  999.0,  999.0,  999.0,  999.0,  999.0,  999.0,  999.0,  999.0,  999.0,  999.0,  999.0,  999.0,  999.0,  999.0,  999.0,  999.0,  999.0,  999.0,  999.0,  999.0,  999.0,  999.0,  999.0,  999.0,  999.0,  999.0,  999.0,  999.0,  999.0,  999.0,  999.0,  999.0,  999.0,  999.0,  999.0,  999.0,  999.0,  999.0,  999.0,  999.0,  999.0
2011/09/07 20:40,  999.0,  999.0,   -1.0,   -0.0,   -1.1,   -1.8,  999.0,  999.0,  999.0,  999.0,  999.0,  999.0,  999.0,  999.0,   -0.6,   -0.7,   -0.3,   -0.6,   -0.7,  999.0,  999.0,    0.3,  999.0,    1.0,    2.4,    2.6,    2.9,    2.7,    3.0,    3.6,    3.5,    3.1,    3.5,    1.3,    0.4,   -0.8,   -1.2,  999.0,   -0.0,    0.6,    0.6,    0.6,  999.0,  999.0,  999.0,  999.0,  999.0,  999.0,  999.0,   -3.9,  999.0,  999.0,  999.0,  999.0,  999.0,  999.0,  999.0,  999.0,  999.0,  999.0,  999.0,  999.0,  999.0,  999.0,  999.0,  999.0,  999.0,  999.0,  999.0,  999.0,  999.0,  999.0,  999.0,  999.0,  999.0,  999.0,  999.0,  999.0,  999.0,  999.0,  999.0,  999.0,  999.0,  999.0,  999.0,  999.0,  999.0,  999.0,  999.0,  999.0,  999.0,  999.0,  999.0,  999.0,  999.0,  999.0,  999.0,  999.0
2011/09/07 20:50,  999.0,  999.0,   -2.9,   -1.6,   -1.9,   -2.8,  999.0,  999.0,  999.0,  999.0,  999.0,  999.0,  999.0,   -1.1,  999.0,  999.0,   -0.8,   -1.4,  999.0,  999.0,   -0.8,   -0.7,    0.2,    1.0,    1.6,    1.6,    2.0,    2.4,    2.9,    3.1,    2.6,    2.2,    2.5,    0.8,    0.1,   -0.5,   -0.9,   -0.3,    0.1,    0.5,    0.9,  999.0,  999.0,  999.0,  999.0,  999.0,  999.0,  999.0,   -4.2,   -3.5,  999.0,  999.0,  999.0,  999.0,  999.0,  999.0,  999.0,  999.0,  999.0,  999.0,  999.0,  999.0,  999.0,  999.0,  999.0,  999.0,  999.0,  999.0,  999.0,  999.0,  999.0,  999.0,  999.0,  999.0,  999.0,  999.0,  999.0,  999.0,  999.0,  999.0,  999.0,  999.0,  999.0,  999.0,  999.0,  999.0,  999.0,  999.0,  999.0,  999.0,  999.0,  999.0,  999.0,  999.0,  999.0,  999.0,  999.0,  999.0
2011/09/07 21:00,  999.0,   -1.7,   -1.7,   -1.7,   -1.3,   -1.9,  999.0,  999.0,  999.0,  999.0,  999.0,  999.0,  999.0,  999.0,  999.0,  999.0,  999.0,  999.0,  999.0,   -0.7,  999.0,  999.0,   -0.5,    0.1,    0.6,    1.3,    1.4,    1.9,    3.2,    1.4,    1.4,    1.2,    1.3,    0.2,   -0.4,   -0.6,  999.0,    0.1,    1.0,    1.4,  999.0,  999.0,  999.0,  999.0,  999.0,  999.0,  999.0,  999.0,  999.0,  999.0,  999.0,  999.0,  999.0,  999.0,  999.0,  999.0,  999.0,  999.0,  999.0,  999.0,  999.0,  999.0,  999.0,  999.0,  999.0,  999.0,  999.0,  999.0,  999.0,  999.0,  999.0,  999.0,  999.0,  999.0,  999.0,  999.0,  999.0,  999.0,  999.0,  999.0,  999.0,  999.0,  999.0,  999.0,  999.0,  999.0,  999.0,  999.0,  999.0,  999.0,  999.0,  999.0,  999.0,  999.0,  999.0,  999.0,  999.0,  999.0
2011/09/07 21:10,  999.0,  999.0,   -1.7,  999.0,  999.0,  999.0,  999.0,  999.0,  999.0,  999.0,  999.0,  999.0,   -1.8,  999.0,  999.0,   -1.0,   -1.3,   -1.7,  999.0,   -0.7,  999.0,  999.0,  999.0,  999.0,    0.8,    1.1,    1.6,    2.1,  999.0,  999.0,    1.8,    1.7,    1.6,    0.7,   -0.1,   -0.8,  999.0,   -0.7,    0.5,    1.0,  999.0,  999.0,  999.0,  999.0,  999.0,  999.0,  999.0,  999.0,  999.0,  999.0,  999.0,  999.0,  999.0,  999.0,  999.0,  999.0,  999.0,  999.0,  999.0,  999.0,  999.0,  999.0,  999.0,  999.0,  999.0,  999.0,  999.0,  999.0,  999.0,  999.0,  999.0,  999.0,  999.0,  999.0,  999.0,  999.0,  999.0,  999.0,  999.0,  999.0,  999.0,  999.0,  999.0,  999.0,  999.0,  999.0,  999.0,  999.0,  999.0,  999.0,  999.0,  999.0,  999.0,  999.0,  999.0,  999.0,  999.0,  999.0
2011/09/07 21:20,  999.0,  999.0,  999.0,   -2.4,  999.0,  999.0,   -1.9,  999.0,  999.0,  999.0,  999.0,  999.0,   -1.4,   -1.7,   -1.5,   -0.7,   -1.0,   -1.4,   -1.4,   -0.4,  999.0,  999.0,  999.0,  999.0,    1.0,  999.0,    2.5,    2.4,  999.0,  999.0,    1.3,  999.0,    1.1,    0.4,   -0.5,   -0.9,   -0.9,   -0.9,    0.1,  999.0,  999.0,  999.0,   -3.9,  999.0,  999.0,  999.0,  999.0,  999.0,  999.0,  999.0,  999.0,  999.0,  999.0,  999.0,  999.0,  999.0,  999.0,  999.0,  999.0,  999.0,  999.0,  999.0,  999.0,  999.0,  999.0,  999.0,  999.0,  999.0,  999.0,  999.0,  999.0,  999.0,  999.0,  999.0,  999.0,  999.0,  999.0,  999.0,  999.0,  999.0,  999.0,  999.0,  999.0,  999.0,  999.0,  999.0,  999.0,  999.0,  999.0,  999.0,  999.0,  999.0,  999.0,  999.0,  999.0,  999.0,  999.0,  999.0
2011/09/07 21:30,  999.0,   -1.1,  999.0,   -3.4,  999.0,  999.0,  999.0,  999.0,  999.0,  999.0,  999.0,  999.0,   -1.8,   -1.8,   -1.7,   -1.3,   -1.0,   -1.7,   -1.2,  999.0,   -0.5,  999.0,  999.0,    0.5,    1.6,    2.1,    2.4,  999.0,  999.0,    1.6,    1.3,    1.1,    0.8,    0.9,    0.2,   -0.5,   -0.9,   -0.6,    0.4,    1.1,  999.0,  999.0,  999.0,  999.0,  999.0,  999.0,  999.0,  999.0,  999.0,  999.0,  999.0,  999.0,  999.0,  999.0,  999.0,  999.0,  999.0,  999.0,  999.0,  999.0,  999.0,  999.0,  999.0,  999.0,  999.0,  999.0,  999.0,  999.0,  999.0,  999.0,  999.0,  999.0,  999.0,  999.0,  999.0,  999.0,  999.0,  999.0,  999.0,  999.0,  999.0,  999.0,  999.0,  999.0,  999.0,  999.0,  999.0,  999.0,  999.0,  999.0,  999.0,  999.0,  999.0,  999.0,  999.0,  999.0,  999.0,  999.0
2011/09/07 21:40,  999.0,  999.0,  999.0,   -3.7,  999.0,  999.0,   -1.8,   -2.0,  999.0,   -2.2,   -2.1,  999.0,   -2.4,   -1.7,  999.0,   -1.0,   -0.1,   -0.5,   -1.2,  999.0,  999.0,    1.1,  999.0,    2.2,  999.0,    2.6,    3.4,  999.0,  999.0,  999.0,    1.8,    1.5,    1.7,    1.4,    1.4,    0.2,    0.0,   -0.1,    0.3,    1.2,  999.0,  999.0,  999.0,  999.0,  999.0,  999.0,  999.0,  999.0,  999.0,  999.0,  999.0,  999.0,  999.0,  999.0,  999.0,  999.0,  999.0,  999.0,  999.0,  999.0,  999.0,  999.0,  999.0,  999.0,  999.0,  999.0,  999.0,  999.0,  999.0,  999.0,  999.0,  999.0,  999.0,  999.0,  999.0,  999.0,  999.0,  999.0,  999.0,  999.0,  999.0,  999.0,  999.0,  999.0,  999.0,  999.0,  999.0,  999.0,  999.0,  999.0,  999.0,  999.0,  999.0,  999.0,  999.0,  999.0,  999.0,  999.0
2011/09/07 21:50,  999.0,  999.0,   -3.4,   -3.4,  999.0,  999.0,  999.0,  999.0,  999.0,  999.0,   -2.4,   -0.8,   -1.8,   -0.3,    0.4,   -4.1,  999.0,  999.0,    0.2,   -1.0,   -0.9,    0.2,    0.3,    1.5,  999.0,  999.0,    2.6,    2.8,  999.0,  999.0,    2.2,    1.9,    2.2,    1.4,    1.2,    0.1,    0.2,   -0.1,    1.2,    1.3,  999.0,  999.0,  999.0,  999.0,  999.0,  999.0,  999.0,  999.0,  999.0,  999.0,  999.0,  999.0,  999.0,  999.0,  999.0,  999.0,  999.0,  999.0,  999.0,  999.0,  999.0,  999.0,  999.0,  999.0,  999.0,  999.0,  999.0,  999.0,  999.0,  999.0,  999.0,  999.0,  999.0,  999.0,  999.0,  999.0,  999.0,  999.0,  999.0,  999.0,  999.0,  999.0,  999.0,  999.0,  999.0,  999.0,  999.0,  999.0,  999.0,  999.0,  999.0,  999.0,  999.0,  999.0,  999.0,  999.0,  999.0,  999.0
2011/09/07 22:00,  999.0,  999.0,  999.0,   -3.2,   -3.1,   -4.4,  999.0,  999.0,  999.0,  999.0,   -3.0,  999.0,   -1.7,    0.6,    2.5,    2.8,    1.4,    2.6,    2.8,    1.6,    0.8,   -2.0,  999.0,    0.9,   -0.8,    0.3,  999.0,    2.1,    2.8,    2.2,    1.9,    2.0,    1.7,    1.6,    1.3,    0.6,  999.0,  999.0,    1.7,    1.8,  999.0,  999.0,  999.0,  999.0,  999.0,  999.0,  999.0,  999.0,  999.0,  999.0,  999.0,  999.0,  999.0,  999.0,  999.0,  999.0,  999.0,  999.0,  999.0,  999.0,  999.0,  999.0,  999.0,  999.0,  999.0,  999.0,  999.0,  999.0,  999.0,  999.0,  999.0,  999.0,  999.0,  999.0,  999.0,  999.0,  999.0,  999.0,  999.0,  999.0,  999.0,  999.0,  999.0,  999.0,  999.0,  999.0,  999.0,  999.0,  999.0,  999.0,  999.0,  999.0,  999.0,  999.0,  999.0,  999.0,  999.0,  999.0
2011/09/07 22:10,    0.8,   -1.5,   -1.8,  999.0,   -3.0,   -4.1,   -3.5,   -2.8,  999.0,   -2.7,   -2.2,   -1.5,   -1.5,   -0.9,   -0.9,  999.0,   -1.5,   -1.0,   -0.4,    0.7,    0.9,    1.5,    1.2,    3.0,    1.8,    1.0,    2.5,    1.6,    1.9,    1.2,    1.1,    0.6,    0.2,    1.1,    1.0,    1.4,  999.0,    2.1,    2.1,    3.0,  999.0,  999.0,  999.0,  999.0,  999.0,  999.0,  999.0,  999.0,  999.0,  999.0,  999.0,  999.0,  999.0,  999.0,  999.0,  999.0,  999.0,  999.0,  999.0,  999.0,  999.0,  999.0,  999.0,  999.0,  999.0,  999.0,  999.0,  999.0,  999.0,  999.0,  999.0,  999.0,  999.0,  999.0,  999.0,  999.0,  999.0,  999.0,  999.0,  999.0,  999.0,  999.0,  999.0,  999.0,  999.0,  999.0,  999.0,  999.0,  999.0,  999.0,  999.0,  999.0,  999.0,  999.0,  999.0,  999.0,  999.0,  999.0
2011/09/07 22:20,    0.2,  999.0,   -0.6,  999.0,  999.0,  999.0,  999.0,  999.0,  999.0,  999.0,  999.0,   -2.6,   -2.6,   -2.3,   -2.2,   -1.7,   -1.6,   -0.2,    0.7,    2.1,    1.5,    5.2,    6.3,    6.1,    6.9,    5.5,    5.8,    4.0,    3.7,    4.2,    3.4,  999.0,    1.9,    0.1,   -0.5,    0.0,   -1.6,    1.0,    1.7,  999.0,  999.0,  999.0,  999.0,  999.0,  999.0,  999.0,  999.0,  999.0,  999.0,  999.0,  999.0,  999.0,  999.0,  999.0,  999.0,  999.0,  999.0,  999.0,  999.0,  999.0,  999.0,  999.0,  999.0,  999.0,  999.0,  999.0,  999.0,  999.0,  999.0,  999.0,  999.0,  999.0,  999.0,  999.0,  999.0,  999.0,  999.0,  999.0,  999.0,  999.0,  999.0,  999.0,  999.0,  999.0,  999.0,  999.0,  999.0,  999.0,  999.0,  999.0,  999.0,  999.0,  999.0,  999.0,  999.0,  999.0,  999.0,  999.0
2011/09/07 22:30,    0.2,   -0.2,  999.0,  999.0,  999.0,  999.0,  999.0,  999.0,  999.0,  999.0,  999.0,  999.0,  999.0,   -1.3,  999.0,  999.0,    2.1,    1.7,    2.3,    2.7,    4.1,    3.1,    3.1,    4.4,    5.1,    3.8,    3.2,    2.4,    1.7,    1.0,    1.7,    0.4,   -0.5,   -1.1,   -1.1,  999.0,    0.0,    0.5,  999.0,  999.0,  999.0,  999.0,  999.0,  999.0,  999.0,  999.0,  999.0,  999.0,  999.0,  999.0,  999.0,  999.0,  999.0,  999.0,  999.0,  999.0,  999.0,  999.0,  999.0,  999.0,  999.0,  999.0,  999.0,  999.0,  999.0,  999.0,  999.0,  999.0,  999.0,  999.0,  999.0,  999.0,  999.0,  999.0,  999.0,  999.0,  999.0,  999.0,  999.0,  999.0,  999.0,  999.0,  999.0,  999.0,  999.0,  999.0,  999.0,  999.0,  999.0,  999.0,  999.0,  999.0,  999.0,  999.0,  999.0,  999.0,  999.0,  999.0
2011/09/07 22:40,    0.0,    0.3,    0.8,   -1.0,  999.0,  999.0,  999.0,  999.0,   -3.3,   -1.6,  999.0,    0.1,   -0.8,   -0.6,   -1.0,   -1.3,   -0.9,   -0.5,   -0.6,   -0.3,    0.5,  999.0,    1.4,    1.4,    1.0,    0.5,    0.8,    1.4,    1.4,    1.0,    0.8,    0.7,   -0.1,   -1.0,   -1.6,   -1.5,   -1.1,   -0.0,    0.8,    0.3,  999.0,  999.0,  999.0,  999.0,  999.0,  999.0,  999.0,  999.0,  999.0,  999.0,  999.0,  999.0,  999.0,  999.0,  999.0,  999.0,  999.0,  999.0,  999.0,  999.0,  999.0,  999.0,  999.0,  999.0,  999.0,  999.0,  999.0,  999.0,  999.0,  999.0,  999.0,  999.0,  999.0,  999.0,  999.0,  999.0,  999.0,  999.0,  999.0,  999.0,  999.0,  999.0,  999.0,  999.0,  999.0,  999.0,  999.0,  999.0,  999.0,  999.0,  999.0,  999.0,  999.0,  999.0,  999.0,  999.0,  999.0,  999.0
2011/09/07 22:50,    0.1,   -0.6,  999.0,  999.0,  999.0,  999.0,  999.0,   -0.7,   -2.6,  999.0,    0.6,  999.0,  999.0,  999.0,  999.0,   -0.9,    0.2,   -0.9,   -0.7,   -0.5,   -0.2,   -0.0,  999.0,  999.0,    1.5,    1.4,    1.1,    1.2,    1.3,    1.0,    1.7,    1.8,    1.2,    0.1,   -0.0,  999.0,  999.0,  999.0,   -0.1,    0.6,    0.4,  999.0,  999.0,  999.0,  999.0,  999.0,  999.0,  999.0,  999.0,  999.0,  999.0,  999.0,  999.0,  999.0,  999.0,  999.0,  999.0,  999.0,  999.0,  999.0,  999.0,  999.0,  999.0,  999.0,  999.0,  999.0,  999.0,  999.0,  999.0,  999.0,  999.0,  999.0,  999.0,  999.0,  999.0,  999.0,  999.0,  999.0,  999.0,  999.0,  999.0,  999.0,  999.0,  999.0,  999.0,  999.0,  999.0,  999.0,  999.0,  999.0,  999.0,  999.0,  999.0,  999.0,  999.0,  999.0,  999.0,  999.0
2011/09/07 23:00,  999.0,   -1.3,   -1.5,  999.0,   -1.1,  999.0,  999.0,  999.0,  999.0,  999.0,   -0.9,    0.7,    0.0,  999.0,    0.4,    0.8,   -0.7,   -1.0,    1.5,    0.8,    0.6,  999.0,    2.3,  999.0,    2.7,    2.0,    2.3,    2.2,    2.1,    1.8,    2.2,    2.4,    2.8,    1.9,    0.9,    0.2,   -0.0,   -0.7,   -1.2,   -0.6,   -0.3,  999.0,  999.0,  999.0,  999.0,  999.0,  999.0,  999.0,  999.0,  999.0,  999.0,  999.0,  999.0,  999.0,  999.0,  999.0,  999.0,  999.0,  999.0,  999.0,  999.0,  999.0,  999.0,  999.0,  999.0,  999.0,  999.0,  999.0,  999.0,  999.0,  999.0,  999.0,  999.0,  999.0,  999.0,  999.0,  999.0,  999.0,  999.0,  999.0,  999.0,  999.0,  999.0,  999.0,  999.0,  999.0,  999.0,  999.0,  999.0,  999.0,  999.0,  999.0,  999.0,  999.0,  999.0,  999.0,  999.0,  999.0
2011/09/07 23:10,  999.0,  999.0,   -1.6,   -1.6,   -1.9,  999.0,  999.0,   -0.3,    0.7,    0.8,  999.0,  999.0,    2.3,    1.3,    0.9,  999.0,    1.7,    1.2,    0.9,    1.3,    1.1,    0.8,    1.2,    2.1,    2.9,    3.8,    5.0,    5.7,    4.3,    3.4,    3.3,    3.2,    3.3,    2.5,    2.0,    1.2,    0.1,   -0.5,  999.0,    0.7,    1.1,  999.0,  999.0,  999.0,  999.0,  999.0,  999.0,  999.0,  999.0,  999.0,  999.0,  999.0,  999.0,  999.0,  999.0,  999.0,  999.0,  999.0,  999.0,  999.0,  999.0,  999.0,  999.0,  999.0,  999.0,  999.0,  999.0,  999.0,  999.0,  999.0,  999.0,  999.0,  999.0,  999.0,  999.0,  999.0,  999.0,  999.0,  999.0,  999.0,  999.0,  999.0,  999.0,  999.0,  999.0,  999.0,  999.0,  999.0,  999.0,  999.0,  999.0,  999.0,  999.0,  999.0,  999.0,  999.0,  999.0,  999.0
2011/09/07 23:20,   -0.2,   -1.8,   -1.1,  999.0,  999.0,  999.0,   -0.9,   -0.6,  999.0,  999.0,    1.8,    2.7,    2.3,    1.9,    0.3,    1.1,    1.9,    2.7,    2.3,    1.9,    1.5,    0.7,    0.2,    1.1,    2.8,    3.4,    2.8,    2.7,    2.5,    1.9,    2.0,    1.3,    1.0,    2.1,    2.2,    1.8,    1.4,  999.0,    1.9,  999.0,  999.0,  999.0,  999.0,  999.0,  999.0,  999.0,  999.0,  999.0,  999.0,  999.0,  999.0,  999.0,  999.0,  999.0,  999.0,  999.0,  999.0,  999.0,  999.0,  999.0,  999.0,  999.0,  999.0,  999.0,  999.0,  999.0,  999.0,  999.0,  999.0,  999.0,  999.0,  999.0,  999.0,  999.0,  999.0,  999.0,  999.0,  999.0,  999.0,  999.0,  999.0,  999.0,  999.0,  999.0,  999.0,  999.0,  999.0,  999.0,  999.0,  999.0,  999.0,  999.0,  999.0,  999.0,  999.0,  999.0,  999.0,  999.0
2011/09/07 23:30,  999.0,  999.0,   -1.5,   -0.6,  999.0,   -0.9,   -1.9,   -1.1,   -0.2,   -0.0,    1.1,    1.6,    2.0,    1.2,    2.1,    2.3,    2.2,    2.4,    2.7,    3.2,    2.7,    2.0,    1.5,    1.8,    1.6,    0.8,    0.7,    1.1,    1.9,    1.9,    1.1,    2.3,    2.5,    2.5,    2.1,    1.4,    1.8,    2.1,    2.6,  999.0,  999.0,  999.0,  999.0,  999.0,  999.0,  999.0,   -2.9,   -3.5,  999.0,  999.0,  999.0,  999.0,  999.0,  999.0,  999.0,  999.0,  999.0,  999.0,  999.0,  999.0,  999.0,  999.0,  999.0,  999.0,  999.0,  999.0,  999.0,  999.0,  999.0,  999.0,  999.0,  999.0,  999.0,  999.0,  999.0,  999.0,  999.0,  999.0,  999.0,  999.0,  999.0,  999.0,  999.0,  999.0,  999.0,  999.0,  999.0,  999.0,  999.0,  999.0,  999.0,  999.0,  999.0,  999.0,  999.0,  999.0,  999.0,  999.0
2011/09/07 23:40,    0.4,  999.0,  999.0,   -0.8,   -1.3,   -1.3,   -1.1,   -1.1,    0.7,  999.0,    1.2,    1.5,    1.3,    1.2,  999.0,    1.3,    0.7,    1.7,    3.3,    3.6,    2.7,    2.2,    2.7,    2.1,    1.5,    0.9,    1.0,    1.3,    1.0,    1.2,    2.1,    2.7,    2.9,    2.7,    2.8,    2.2,    1.8,    1.6,    1.6,  999.0,  999.0,  999.0,  999.0,  999.0,  999.0,  999.0,  999.0,  999.0,  999.0,  999.0,  999.0,  999.0,  999.0,  999.0,  999.0,  999.0,  999.0,  999.0,  999.0,  999.0,  999.0,  999.0,  999.0,  999.0,  999.0,  999.0,  999.0,  999.0,  999.0,  999.0,  999.0,  999.0,  999.0,  999.0,  999.0,  999.0,  999.0,  999.0,  999.0,  999.0,  999.0,  999.0,  999.0,  999.0,  999.0,  999.0,  999.0,  999.0,  999.0,  999.0,  999.0,  999.0,  999.0,  999.0,  999.0,  999.0,  999.0,  999.0
2011/09/07 23:50,  999.0,  999.0,  999.0,   -0.4,  999.0,  999.0,   -1.0,   -0.8,   -0.6,  999.0,  999.0,    1.0,   -0.1,    0.3,    0.1,    0.9,    0.7,    0.3,    0.6,    1.0,    1.7,    2.1,    2.4,    2.5,    2.5,    1.6,    1.4,    2.1,    0.9,    0.6,    0.6,    1.0,    1.4,    2.1,    2.0,    1.6,    1.2,    0.9,    0.9,  999.0,  999.0,  999.0,  999.0,  999.0,  999.0,  999.0,  999.0,  999.0,  999.0,  999.0,  999.0,  999.0,  999.0,  999.0,  999.0,  999.0,  999.0,  999.0,  999.0,  999.0,  999.0,  999.0,  999.0,  999.0,  999.0,  999.0,  999.0,  999.0,  999.0,  999.0,  999.0,  999.0,  999.0,  999.0,  999.0,  999.0,  999.0,  999.0,  999.0,  999.0,  999.0,  999.0,  999.0,  999.0,  999.0,  999.0,  999.0,  999.0,  999.0,  999.0,  999.0,  999.0,  999.0,  999.0,  999.0,  999.0,  999.0,  999.0
